Observation data for Fort McKavett on 12/10/2018      Previous  Date       Current Mesonet Observations  Soil Data  Daily Summary Page  Observations in Plain Language
KMC1 100600Z 20002KT M03/M03 A304 RMK A01 T10261027  RH  099%=      5-min Rain = 0
KMC1 100601Z 20003KT M03/M03 A304 RMK A01 T10251026  RH  099%=      5-min Rain = 0
KMC1 100602Z 20003KT M03/M03 A304 RMK A01 T10251026  RH  099%=      5-min Rain = 0
KMC1 100603Z 20003KT M03/M03 A304 RMK A01 T10251026  RH  099%=      5-min Rain = 0
KMC1 100604Z 19003KT M03/M03 A304 RMK A01 T10251026  RH  099%=      5-min Rain = 0
KMC1 100605Z 20003KT M03/M03 A304 RMK A01 T10251026  RH  099%=      5-min Rain = 0
KMC1 100606Z 20003KT M03/M03 A304 RMK A01 T10251026  RH  099%=      5-min Rain = 0
KMC1 100607Z 20003KT M03/M03 A304 RMK A01 T10251026  RH  099%=      5-min Rain = 0
KMC1 100608Z 20003KT M03/M03 A304 RMK A01 T10251026  RH  099%=      5-min Rain = 0
KMC1 100609Z 20003KT M03/M03 A304 RMK A01 T10261027  RH  099%=      5-min Rain = 0
KMC1 100610Z 20003KT M03/M03 A304 RMK A01 T10261027  RH  099%=      5-min Rain = 0
KMC1 100611Z 21002KT M03/M03 A304 RMK A01 T10271028  RH  099%=      5-min Rain = 0
KMC1 100612Z 22002KT M03/M03 A304 RMK A01 T10281029  RH  099%=      5-min Rain = 0
KMC1 100613Z 22002KT M03/M03 A304 RMK A01 T10291031  RH  099%=      5-min Rain = 0
KMC1 100614Z 22003KT M03/M03 A304 RMK A01 T10291032  RH  099%=      5-min Rain = 0
KMC1 100615Z 22003KT M03/M03 A304 RMK A01 T10301033  RH  098%=      5-min Rain = 0
KMC1 100616Z 22003KT M03/M03 A304 RMK A01 T10311033  RH  098%=      5-min Rain = 0
KMC1 100617Z 22003KT M03/M03 A304 RMK A01 T10321034  RH  098%=      5-min Rain = 0
KMC1 100618Z 22003KT M03/M04 A304 RMK A01 T10321035  RH  098%=      5-min Rain = 0
KMC1 100619Z 22003KT M03/M04 A304 RMK A01 T10321035  RH  098%=      5-min Rain = 0
KMC1 100620Z 22003KT M03/M04 A304 RMK A01 T10321035  RH  098%=      5-min Rain = 0
KMC1 100621Z 22003KT M03/M04 A304 RMK A01 T10321035  RH  098%=      5-min Rain = 0
KMC1 100622Z 22004KT M03/M04 A304 RMK A01 T10331035  RH  098%=      5-min Rain = 0
KMC1 100623Z 21004KT M03/M04 A304 RMK A01 T10331036  RH  098%=      5-min Rain = 0
KMC1 100624Z 21004KT M03/M04 A304 RMK A01 T10331036  RH  098%=      5-min Rain = 0
KMC1 100625Z 21003KT M03/M04 A304 RMK A01 T10331036  RH  098%=      5-min Rain = 0
KMC1 100626Z 21004KT M03/M04 A304 RMK A01 T10331035  RH  098%=      5-min Rain = 0
KMC1 100627Z 21004KT M03/M04 A304 RMK A01 T10331035  RH  098%=      5-min Rain = 0
KMC1 100628Z 20004KT M03/M04 A304 RMK A01 T10331035  RH  099%=      5-min Rain = 0
KMC1 100629Z 21004KT M03/M03 A304 RMK A01 T10331034  RH  099%=      5-min Rain = 0
KMC1 100630Z 21004KT M03/M03 A304 RMK A01 T10311033  RH  099%=      5-min Rain = 0
KMC1 100631Z 21004KT M03/M03 A304 RMK A01 T10301032  RH  099%=      5-min Rain = 0
KMC1 100632Z 21004KT M03/M03 A304 RMK A01 T10301031  RH  099%=      5-min Rain = 0
KMC1 100633Z 21004KT M03/M03 A304 RMK A01 T10301032  RH  099%=      5-min Rain = 0
KMC1 100634Z 21004KT M03/M03 A304 RMK A01 T10301032  RH  099%=      5-min Rain = 0
KMC1 100635Z 20004KT M03/M03 A304 RMK A01 T10301032  RH  099%=      5-min Rain = 0
KMC1 100636Z 20004KT M03/M03 A304 RMK A01 T10291030  RH  099%=      5-min Rain = 0
KMC1 100637Z 20004KT M03/M03 A3039 RMK A01 T10291029  RH  099%=      5-min Rain = 0
KMC1 100638Z 20003KT M03/M03 A3039 RMK A01 T10271028  RH  100%=      5-min Rain = 0
KMC1 100639Z 21003KT M03/M03 A3039 RMK A01 T10271027  RH  100%=      5-min Rain = 0
KMC1 100640Z 21003KT M03/M03 A3039 RMK A01 T10271027  RH  100%=      5-min Rain = 0
KMC1 100641Z 21003KT M03/M03 A3039 RMK A01 T10271028  RH  100%=      5-min Rain = 0
KMC1 100642Z 21003KT M03/M03 A3039 RMK A01 T10271028  RH  100%=      5-min Rain = 0
KMC1 100643Z 21003KT M03/M03 A3039 RMK A01 T10281029  RH  099%=      5-min Rain = 0
KMC1 100644Z 21003KT M03/M03 A3039 RMK A01 T10291030  RH  099%=      5-min Rain = 0
KMC1 100645Z 22003KT M03/M03 A3039 RMK A01 T10291031  RH  099%=      5-min Rain = 0
KMC1 100646Z 22003KT M03/M03 A3039 RMK A01 T10301032  RH  099%=      5-min Rain = 0
KMC1 100647Z 22003KT M03/M03 A3039 RMK A01 T10311032  RH  099%=      5-min Rain = 0
KMC1 100648Z 22003KT M03/M03 A3039 RMK A01 T10321034  RH  099%=      5-min Rain = 0
KMC1 100649Z 22003KT M03/M03 A3039 RMK A01 T10331034  RH  099%=      5-min Rain = 0
KMC1 100650Z 22002KT M03/M04 A3039 RMK A01 T10331035  RH  099%=      5-min Rain = 0
KMC1 100651Z 22003KT M03/M04 A3039 RMK A01 T10331035  RH  099%=      5-min Rain = 0
KMC1 100652Z 22003KT M03/M04 A3039 RMK A01 T10341035  RH  099%=      5-min Rain = 0
KMC1 100653Z 22003KT M03/M04 A3039 RMK A01 T10341036  RH  099%=      5-min Rain = 0
KMC1 100654Z 22003KT M03/M04 A3039 RMK A01 T10341036  RH  099%=      5-min Rain = 0
KMC1 100655Z 22003KT M03/M04 A3039 RMK A01 T10341036  RH  099%=      5-min Rain = 0
KMC1 100656Z 22003KT M04/M04 A3039 RMK A01 T10351037  RH  099%=      5-min Rain = 0
KMC1 100657Z 22003KT M04/M04 A3039 RMK A01 T10351037  RH  099%=      5-min Rain = 0
KMC1 100658Z 22003KT M04/M04 A3039 RMK A01 T10361038  RH  099%=      5-min Rain = 0
KMC1 100659Z 22004KT M04/M04 A3039 RMK A01 T10361038  RH  099%=      5-min Rain = 0
KMC1 100700Z 22004KT M04/M04 A3039 RMK A01 T10361039  RH  099%=      5-min Rain = 0
KMC1 100701Z 22003KT M04/M04 A3039 RMK A01 T10371039  RH  098%=      5-min Rain = 0
KMC1 100702Z 22003KT M04/M04 A3039 RMK A01 T10371039  RH  098%=      5-min Rain = 0
KMC1 100703Z 22003KT M04/M04 A3039 RMK A01 T10371039  RH  099%=      5-min Rain = 0
KMC1 100704Z 21003KT M04/M04 A3039 RMK A01 T10371039  RH  099%=      5-min Rain = 0
KMC1 100705Z 21003KT M04/M04 A3039 RMK A01 T10371039  RH  099%=      5-min Rain = 0
KMC1 100706Z 21003KT M04/M04 A3039 RMK A01 T10371039  RH  099%=      5-min Rain = 0
KMC1 100707Z 20003KT M04/M04 A3038 RMK A01 T10371039  RH  099%=      5-min Rain = 0
KMC1 100708Z 20003KT M04/M04 A3038 RMK A01 T10371039  RH  099%=      5-min Rain = 0
KMC1 100709Z 20003KT M04/M04 A3039 RMK A01 T10371038  RH  099%=      5-min Rain = 0
KMC1 100710Z 20003KT M04/M04 A3039 RMK A01 T10361038  RH  099%=      5-min Rain = 0
KMC1 100711Z 21003KT M04/M04 A3039 RMK A01 T10361038  RH  099%=      5-min Rain = 0
KMC1 100712Z 21003KT M04/M04 A3039 RMK A01 T10361037  RH  099%=      5-min Rain = 0
KMC1 100713Z 20003KT M04/M04 A3038 RMK A01 T10371038  RH  099%=      5-min Rain = 0
KMC1 100714Z 20004KT M04/M04 A3038 RMK A01 T10361038  RH  099%=      5-min Rain = 0
KMC1 100715Z 20004KT M04/M04 A3038 RMK A01 T10361038  RH  099%=      5-min Rain = 0
KMC1 100716Z 20004KT M04/M04 A3038 RMK A01 T10361038  RH  099%=      5-min Rain = 0
KMC1 100717Z 20004KT M04/M04 A3038 RMK A01 T10361037  RH  099%=      5-min Rain = 0
KMC1 100718Z 20004KT M04/M04 A3038 RMK A01 T10361037  RH  099%=      5-min Rain = 0
KMC1 100719Z 20004KT M04/M04 A3038 RMK A01 T10361038  RH  099%=      5-min Rain = 0
KMC1 100720Z 20005KT M04/M04 A3038 RMK A01 T10361037  RH  099%=      5-min Rain = 0
KMC1 100721Z 20004KT M04/M04 A3038 RMK A01 T10361037  RH  099%=      5-min Rain = 0
KMC1 100722Z 20004KT M04/M04 A3038 RMK A01 T10351037  RH  099%=      5-min Rain = 0
KMC1 100723Z 20004KT M04/M04 A3038 RMK A01 T10351036  RH  099%=      5-min Rain = 0
KMC1 100724Z 21004KT M03/M04 A3038 RMK A01 T10341035  RH  099%=      5-min Rain = 0
KMC1 100725Z 21004KT M04/M04 A3038 RMK A01 T10351036  RH  099%=      5-min Rain = 0
KMC1 100726Z 20004KT M03/M04 A3038 RMK A01 T10341035  RH  099%=      5-min Rain = 0
KMC1 100727Z 20004KT M03/M04 A3038 RMK A01 T10341035  RH  099%=      5-min Rain = 0
KMC1 100728Z 20004KT M03/M04 A3038 RMK A01 T10341035  RH  099%=      5-min Rain = 0
KMC1 100729Z 20004KT M03/M04 A3038 RMK A01 T10331035  RH  099%=      5-min Rain = 0
KMC1 100730Z 21004KT M03/M04 A3038 RMK A01 T10341035  RH  099%=      5-min Rain = 0
KMC1 100731Z 21004KT M03/M04 A3038 RMK A01 T10341035  RH  099%=      5-min Rain = 0
KMC1 100732Z 21004KT M03/M04 A3038 RMK A01 T10341035  RH  099%=      5-min Rain = 0
KMC1 100733Z 21004KT M03/M04 A3038 RMK A01 T10331035  RH  099%=      5-min Rain = 0
KMC1 100734Z 22003KT M03/M04 A3038 RMK A01 T10331035  RH  099%=      5-min Rain = 0
KMC1 100735Z 22003KT M03/M04 A3038 RMK A01 T10341035  RH  099%=      5-min Rain = 0
KMC1 100736Z 22003KT M03/M04 A3038 RMK A01 T10341035  RH  099%=      5-min Rain = 0
KMC1 100737Z 23003KT M03/M04 A3038 RMK A01 T10341036  RH  099%=      5-min Rain = 0
KMC1 100738Z 23003KT M04/M04 A3038 RMK A01 T10351037  RH  099%=      5-min Rain = 0
KMC1 100739Z 22003KT M04/M04 A3038 RMK A01 T10351037  RH  099%=      5-min Rain = 0
KMC1 100740Z 22003KT M04/M04 A3038 RMK A01 T10351037  RH  099%=      5-min Rain = 0
KMC1 100741Z 23003KT M04/M04 A3038 RMK A01 T10361038  RH  098%=      5-min Rain = 0
KMC1 100742Z 23003KT M04/M04 A3038 RMK A01 T10371039  RH  098%=      5-min Rain = 0
KMC1 100743Z 22004KT M04/M04 A3038 RMK A01 T10371040  RH  098%=      5-min Rain = 0
KMC1 100744Z 22004KT M04/M04 A3038 RMK A01 T10381040  RH  098%=      5-min Rain = 0
KMC1 100745Z 22004KT M04/M04 A3038 RMK A01 T10381041  RH  098%=      5-min Rain = 0
KMC1 100746Z 22004KT M04/M04 A3038 RMK A01 T10391041  RH  098%=      5-min Rain = 0
KMC1 100747Z 22003KT M04/M04 A3038 RMK A01 T10391041  RH  098%=      5-min Rain = 0
KMC1 100748Z 23003KT M04/M04 A3038 RMK A01 T10391042  RH  098%=      5-min Rain = 0
KMC1 100749Z 23003KT M04/M04 A3038 RMK A01 T10391042  RH  098%=      5-min Rain = 0
KMC1 100750Z 23003KT M04/M04 A3038 RMK A01 T10391042  RH  098%=      5-min Rain = 0
KMC1 100751Z 23003KT M04/M04 A3038 RMK A01 T10391042  RH  098%=      5-min Rain = 0
KMC1 100752Z 23003KT M04/M04 A3038 RMK A01 T10391041  RH  098%=      5-min Rain = 0
KMC1 100753Z 23003KT M04/M04 A3038 RMK A01 T10391042  RH  098%=      5-min Rain = 0
KMC1 100754Z 23004KT M04/M04 A3038 RMK A01 T10401042  RH  098%=      5-min Rain = 0
KMC1 100755Z 22004KT M04/M04 A3038 RMK A01 T10401042  RH  098%=      5-min Rain = 0
KMC1 100756Z 23004KT M04/M04 A3038 RMK A01 T10401043  RH  098%=      5-min Rain = 0
KMC1 100757Z 23004KT M04/M04 A3038 RMK A01 T10411043  RH  098%=      5-min Rain = 0
KMC1 100758Z 22004KT M04/M04 A3038 RMK A01 T10411043  RH  098%=      5-min Rain = 0
KMC1 100759Z 22004KT M04/M04 A3038 RMK A01 T10411043  RH  098%=      5-min Rain = 0
KMC1 100800Z 22004KT M04/M04 A3038 RMK A01 T10411043  RH  098%=      5-min Rain = 0
KMC1 100801Z 22003KT M04/M04 A3038 RMK A01 T10411043  RH  098%=      5-min Rain = 0
KMC1 100802Z 22004KT M04/M04 A3038 RMK A01 T10401042  RH  099%=      5-min Rain = 0
KMC1 100803Z 21004KT M04/M04 A3038 RMK A01 T10401042  RH  099%=      5-min Rain = 0
KMC1 100804Z 22004KT M04/M04 A3038 RMK A01 T10401043  RH  099%=      5-min Rain = 0
KMC1 100805Z 22003KT M04/M04 A3038 RMK A01 T10401042  RH  099%=      5-min Rain = 0
KMC1 100806Z 22004KT M04/M04 A3038 RMK A01 T10411043  RH  099%=      5-min Rain = 0
KMC1 100807Z 22004KT M04/M04 A3038 RMK A01 T10411043  RH  099%=      5-min Rain = 0
KMC1 100808Z 23004KT M04/M04 A3038 RMK A01 T10401042  RH  099%=      5-min Rain = 0
KMC1 100809Z 22003KT M04/M04 A3038 RMK A01 T10401042  RH  099%=      5-min Rain = 0
KMC1 100810Z 22003KT M04/M04 A3038 RMK A01 T10411043  RH  099%=      5-min Rain = 0
KMC1 100811Z 22003KT M04/M04 A3038 RMK A01 T10411043  RH  099%=      5-min Rain = 0
KMC1 100812Z 22004KT M04/M04 A3038 RMK A01 T10411043  RH  099%=      5-min Rain = 0
KMC1 100813Z 22003KT M04/M04 A3038 RMK A01 T10411043  RH  099%=      5-min Rain = 0
KMC1 100814Z 22003KT M04/M04 A3038 RMK A01 T10401042  RH  099%=      5-min Rain = 0
KMC1 100815Z 22004KT M04/M04 A3038 RMK A01 T10401042  RH  099%=      5-min Rain = 0
KMC1 100816Z 22004KT M04/M04 A3038 RMK A01 T10411043  RH  099%=      5-min Rain = 0
KMC1 100817Z 22003KT M04/M04 A3038 RMK A01 T10411043  RH  099%=      5-min Rain = 0
KMC1 100818Z 22003KT M04/M04 A3038 RMK A01 T10411043  RH  099%=      5-min Rain = 0
KMC1 100819Z 22003KT M04/M04 A3038 RMK A01 T10411043  RH  098%=      5-min Rain = 0
KMC1 100820Z 22004KT M04/M04 A3038 RMK A01 T10411043  RH  098%=      5-min Rain = 0
KMC1 100821Z 22004KT M04/M04 A3038 RMK A01 T10411043  RH  098%=      5-min Rain = 0
KMC1 100822Z 22004KT M04/M04 A3038 RMK A01 T10411043  RH  099%=      5-min Rain = 0
KMC1 100823Z 22004KT M04/M04 A3038 RMK A01 T10411043  RH  099%=      5-min Rain = 0
KMC1 100824Z 22004KT M04/M04 A3038 RMK A01 T10411043  RH  099%=      5-min Rain = 0
KMC1 100825Z 22004KT M04/M04 A3038 RMK A01 T10411043  RH  099%=      5-min Rain = 0
KMC1 100826Z 22004KT M04/M04 A3038 RMK A01 T10411043  RH  099%=      5-min Rain = 0
KMC1 100827Z 23004KT M04/M04 A3038 RMK A01 T10411043  RH  099%=      5-min Rain = 0
KMC1 100828Z 23004KT M04/M04 A3038 RMK A01 T10411043  RH  099%=      5-min Rain = 0
KMC1 100829Z 23004KT M04/M04 A3038 RMK A01 T10401042  RH  099%=      5-min Rain = 0
KMC1 100830Z 23004KT M04/M04 A3038 RMK A01 T10401042  RH  099%=      5-min Rain = 0
KMC1 100831Z 23004KT M04/M04 A3038 RMK A01 T10401042  RH  099%=      5-min Rain = 0
KMC1 100832Z 23004KT M04/M04 A3038 RMK A01 T10401041  RH  099%=      5-min Rain = 0
KMC1 100833Z 23004KT M04/M04 A3038 RMK A01 T10401042  RH  099%=      5-min Rain = 0
KMC1 100834Z 24004KT M04/M04 A3038 RMK A01 T10401042  RH  099%=      5-min Rain = 0
KMC1 100835Z 24004KT M04/M04 A3038 RMK A01 T10401042  RH  099%=      5-min Rain = 0
KMC1 100836Z 24004KT M04/M04 A3038 RMK A01 T10401042  RH  099%=      5-min Rain = 0
KMC1 100837Z 24003KT M04/M04 A3038 RMK A01 T10401042  RH  099%=      5-min Rain = 0
KMC1 100838Z 24003KT M04/M04 A3038 RMK A01 T10401042  RH  099%=      5-min Rain = 0
KMC1 100839Z 24003KT M04/M04 A3038 RMK A01 T10401041  RH  099%=      5-min Rain = 0
KMC1 100840Z 24003KT M04/M04 A3038 RMK A01 T10391041  RH  099%=      5-min Rain = 0
KMC1 100841Z 24003KT M04/M04 A3038 RMK A01 T10391041  RH  099%=      5-min Rain = 0
KMC1 100842Z 25003KT M04/M04 A3038 RMK A01 T10391041  RH  099%=      5-min Rain = 0
KMC1 100843Z 25003KT M04/M04 A3038 RMK A01 T10391041  RH  099%=      5-min Rain = 0
KMC1 100844Z 25003KT M04/M04 A3038 RMK A01 T10391041  RH  099%=      5-min Rain = 0
KMC1 100845Z 25003KT M04/M04 A3038 RMK A01 T10401041  RH  099%=      5-min Rain = 0
KMC1 100846Z 25003KT M04/M04 A3038 RMK A01 T10401042  RH  099%=      5-min Rain = 0
KMC1 100847Z 25003KT M04/M04 A3038 RMK A01 T10401042  RH  099%=      5-min Rain = 0
KMC1 100848Z 25004KT M04/M04 A3038 RMK A01 T10391041  RH  099%=      5-min Rain = 0
KMC1 100849Z 24004KT M04/M04 A3038 RMK A01 T10401042  RH  099%=      5-min Rain = 0
KMC1 100850Z 24004KT M04/M04 A3038 RMK A01 T10401042  RH  099%=      5-min Rain = 0
KMC1 100851Z 24004KT M04/M04 A3038 RMK A01 T10401042  RH  099%=      5-min Rain = 0
KMC1 100852Z 24004KT M04/M04 A3038 RMK A01 T10401042  RH  099%=      5-min Rain = 0
KMC1 100853Z 24004KT M04/M04 A3038 RMK A01 T10401042  RH  099%=      5-min Rain = 0
KMC1 100854Z 23004KT M04/M04 A3038 RMK A01 T10391041  RH  099%=      5-min Rain = 0
KMC1 100855Z 23004KT M04/M04 A3038 RMK A01 T10391041  RH  099%=      5-min Rain = 0
KMC1 100856Z 23004KT M04/M04 A3038 RMK A01 T10391040  RH  099%=      5-min Rain = 0
KMC1 100857Z 24004KT M04/M04 A3038 RMK A01 T10391040  RH  099%=      5-min Rain = 0
KMC1 100858Z 23004KT M04/M04 A3038 RMK A01 T10391040  RH  099%=      5-min Rain = 0
KMC1 100859Z 23004KT M04/M04 A3038 RMK A01 T10391040  RH  099%=      5-min Rain = 0
KMC1 100900Z 23004KT M04/M04 A3038 RMK A01 T10391041  RH  099%=      5-min Rain = 0
KMC1 100901Z 23004KT M04/M04 A3038 RMK A01 T10391040  RH  099%=      5-min Rain = 0
KMC1 100902Z 23004KT M04/M04 A3038 RMK A01 T10381040  RH  099%=      5-min Rain = 0
KMC1 100903Z 23004KT M04/M04 A3038 RMK A01 T10391040  RH  099%=      5-min Rain = 0
KMC1 100904Z 23004KT M04/M04 A3038 RMK A01 T10391041  RH  099%=      5-min Rain = 0
KMC1 100905Z 23004KT M04/M04 A3038 RMK A01 T10391040  RH  099%=      5-min Rain = 0
KMC1 100906Z 23004KT M04/M04 A3038 RMK A01 T10391040  RH  099%=      5-min Rain = 0
KMC1 100907Z 23004KT M04/M04 A3038 RMK A01 T10391041  RH  099%=      5-min Rain = 0
KMC1 100908Z 22004KT M04/M04 A3038 RMK A01 T10391041  RH  099%=      5-min Rain = 0
KMC1 100909Z 22004KT M04/M04 A3038 RMK A01 T10381040  RH  099%=      5-min Rain = 0
KMC1 100910Z 22004KT M04/M04 A3038 RMK A01 T10391041  RH  099%=      5-min Rain = 0
KMC1 100911Z 22004KT M04/M04 A3038 RMK A01 T10391042  RH  098%=      5-min Rain = 0
KMC1 100912Z 21004KT M04/M04 A3038 RMK A01 T10391041  RH  098%=      5-min Rain = 0
KMC1 100913Z 21004KT M04/M04 A3038 RMK A01 T10391041  RH  099%=      5-min Rain = 0
KMC1 100914Z 21004KT M04/M04 A3038 RMK A01 T10391041  RH  099%=      5-min Rain = 0
KMC1 100915Z 22004KT M04/M04 A3038 RMK A01 T10391041  RH  099%=      5-min Rain = 0
KMC1 100916Z 22004KT M04/M04 A3038 RMK A01 T10391041  RH  099%=      5-min Rain = 0
KMC1 100917Z 22003KT M04/M04 A3038 RMK A01 T10391040  RH  099%=      5-min Rain = 0
KMC1 100918Z 22003KT M04/M04 A3038 RMK A01 T10391041  RH  099%=      5-min Rain = 0
KMC1 100919Z 21004KT M04/M04 A3038 RMK A01 T10391041  RH  099%=      5-min Rain = 0
KMC1 100920Z 21003KT M04/M04 A3038 RMK A01 T10391041  RH  098%=      5-min Rain = 0
KMC1 100921Z 22004KT M04/M04 A3038 RMK A01 T10391041  RH  098%=      5-min Rain = 0
KMC1 100922Z 21003KT M04/M04 A3038 RMK A01 T10391042  RH  098%=      5-min Rain = 0
KMC1 100923Z 22003KT M04/M04 A3038 RMK A01 T10391042  RH  098%=      5-min Rain = 0
KMC1 100924Z 22003KT M04/M04 A3038 RMK A01 T10391041  RH  098%=      5-min Rain = 0
KMC1 100925Z 22003KT M04/M04 A3038 RMK A01 T10391041  RH  098%=      5-min Rain = 0
KMC1 100926Z 22003KT M04/M04 A3038 RMK A01 T10391041  RH  098%=      5-min Rain = 0
KMC1 100927Z 22003KT M04/M04 A3038 RMK A01 T10401042  RH  098%=      5-min Rain = 0
KMC1 100928Z 22003KT M04/M04 A3038 RMK A01 T10401042  RH  098%=      5-min Rain = 0
KMC1 100929Z 23003KT M04/M04 A3038 RMK A01 T10401042  RH  098%=      5-min Rain = 0
KMC1 100930Z 23002KT M04/M04 A3038 RMK A01 T10401042  RH  098%=      5-min Rain = 0
KMC1 100931Z 23002KT M04/M04 A3038 RMK A01 T10401042  RH  098%=      5-min Rain = 0
KMC1 100932Z 23002KT M04/M04 A3038 RMK A01 T10411043  RH  098%=      5-min Rain = 0
KMC1 100933Z 23002KT M04/M04 A3038 RMK A01 T10411044  RH  098%=      5-min Rain = 0
KMC1 100934Z 23003KT M04/M04 A3038 RMK A01 T10421044  RH  098%=      5-min Rain = 0
KMC1 100935Z 22002KT M04/M05 A3038 RMK A01 T10421045  RH  098%=      5-min Rain = 0
KMC1 100936Z 22003KT M04/M04 A3038 RMK A01 T10421044  RH  098%=      5-min Rain = 0
KMC1 100937Z 22003KT M04/M05 A3038 RMK A01 T10421045  RH  098%=      5-min Rain = 0
KMC1 100938Z 23003KT M04/M05 A3038 RMK A01 T10431046  RH  098%=      5-min Rain = 0
KMC1 100939Z 22003KT M04/M05 A3038 RMK A01 T10441047  RH  098%=      5-min Rain = 0
KMC1 100940Z 22003KT M04/M05 A3038 RMK A01 T10441047  RH  098%=      5-min Rain = 0
KMC1 100941Z 23003KT M04/M05 A3038 RMK A01 T10441047  RH  098%=      5-min Rain = 0
KMC1 100942Z 23004KT M04/M05 A3038 RMK A01 T10441047  RH  098%=      5-min Rain = 0
KMC1 100943Z 23003KT M05/M05 A3038 RMK A01 T10451048  RH  098%=      5-min Rain = 0
KMC1 100944Z 23003KT M05/M05 A3038 RMK A01 T10451048  RH  098%=      5-min Rain = 0
KMC1 100945Z 24004KT M05/M05 A3038 RMK A01 T10451048  RH  098%=      5-min Rain = 0
KMC1 100946Z 24003KT M05/M05 A3038 RMK A01 T10451047  RH  098%=      5-min Rain = 0
KMC1 100947Z 23003KT M05/M05 A3038 RMK A01 T10451048  RH  098%=      5-min Rain = 0
KMC1 100948Z 24003KT M05/M05 A3038 RMK A01 T10451047  RH  098%=      5-min Rain = 0
KMC1 100949Z 24003KT M05/M05 A3038 RMK A01 T10451047  RH  098%=      5-min Rain = 0
KMC1 100950Z 24003KT M05/M05 A3038 RMK A01 T10451047  RH  098%=      5-min Rain = 0
KMC1 100951Z 24003KT M05/M05 A3038 RMK A01 T10451047  RH  098%=      5-min Rain = 0
KMC1 100952Z 24003KT M04/M05 A3038 RMK A01 T10441046  RH  098%=      5-min Rain = 0
KMC1 100953Z 24003KT M04/M05 A3038 RMK A01 T10441047  RH  098%=      5-min Rain = 0
KMC1 100954Z 24004KT M04/M05 A3038 RMK A01 T10441047  RH  098%=      5-min Rain = 0
KMC1 100955Z 24004KT M04/M05 A3038 RMK A01 T10441046  RH  098%=      5-min Rain = 0
KMC1 100956Z 23003KT M04/M05 A3038 RMK A01 T10441046  RH  098%=      5-min Rain = 0
KMC1 100957Z 23004KT M04/M05 A3038 RMK A01 T10441046  RH  098%=      5-min Rain = 0
KMC1 100958Z 24003KT M04/M05 A3038 RMK A01 T10441047  RH  098%=      5-min Rain = 0
KMC1 100959Z 24003KT M04/M05 A3038 RMK A01 T10441047  RH  098%=      5-min Rain = 0
KMC1 101000Z 24003KT M04/M05 A3037 RMK A01 T10441047  RH  098%=      5-min Rain = 0
KMC1 101001Z 24003KT M04/M05 A3037 RMK A01 T10441047  RH  098%=      5-min Rain = 0
KMC1 101002Z 24003KT M04/M05 A3037 RMK A01 T10441047  RH  098%=      5-min Rain = 0
KMC1 101003Z 25003KT M04/M05 A3037 RMK A01 T10441047  RH  098%=      5-min Rain = 0
KMC1 101004Z 25003KT M04/M05 A3038 RMK A01 T10441046  RH  098%=      5-min Rain = 0
KMC1 101005Z 26003KT M04/M05 A3038 RMK A01 T10441046  RH  098%=      5-min Rain = 0
KMC1 101006Z 25003KT M04/M05 A3038 RMK A01 T10441047  RH  098%=      5-min Rain = 0
KMC1 101007Z 25004KT M04/M05 A3038 RMK A01 T10441047  RH  098%=      5-min Rain = 0
KMC1 101008Z 25004KT M04/M05 A3038 RMK A01 T10441047  RH  098%=      5-min Rain = 0
KMC1 101009Z 25004KT M04/M05 A3038 RMK A01 T10441047  RH  098%=      5-min Rain = 0
KMC1 101010Z 25004KT M04/M05 A3038 RMK A01 T10441047  RH  098%=      5-min Rain = 0
KMC1 101011Z 25004KT M05/M05 A3038 RMK A01 T10451048  RH  098%=      5-min Rain = 0
KMC1 101012Z 25004KT M05/M05 A3038 RMK A01 T10461049  RH  098%=      5-min Rain = 0
KMC1 101013Z 24004KT M05/M05 A3038 RMK A01 T10461050  RH  098%=      5-min Rain = 0
KMC1 101014Z 24004KT M05/M05 A3038 RMK A01 T10471051  RH  098%=      5-min Rain = 0
KMC1 101015Z 24004KT M05/M05 A3038 RMK A01 T10471051  RH  098%=      5-min Rain = 0
KMC1 101016Z 25004KT M05/M05 A3038 RMK A01 T10471051  RH  098%=      5-min Rain = 0
KMC1 101017Z 24004KT M05/M05 A3038 RMK A01 T10471051  RH  098%=      5-min Rain = 0
KMC1 101018Z 24004KT M05/M05 A3038 RMK A01 T10481051  RH  098%=      5-min Rain = 0
KMC1 101019Z 24004KT M05/M05 A3038 RMK A01 T10481051  RH  098%=      5-min Rain = 0
KMC1 101020Z 24004KT M05/M05 A3037 RMK A01 T10481051  RH  098%=      5-min Rain = 0
KMC1 101021Z 24004KT M05/M05 A3037 RMK A01 T10481052  RH  098%=      5-min Rain = 0
KMC1 101022Z 24004KT M05/M05 A3037 RMK A01 T10481051  RH  098%=      5-min Rain = 0
KMC1 101023Z 24004KT M05/M05 A3037 RMK A01 T10481052  RH  098%=      5-min Rain = 0
KMC1 101024Z 24004KT M05/M05 A3037 RMK A01 T10481052  RH  098%=      5-min Rain = 0
KMC1 101025Z 24004KT M05/M05 A3037 RMK A01 T10481052  RH  098%=      5-min Rain = 0
KMC1 101026Z 23004KT M05/M05 A3037 RMK A01 T10481051  RH  098%=      5-min Rain = 0
KMC1 101027Z 23004KT M05/M05 A3037 RMK A01 T10481051  RH  098%=      5-min Rain = 0
KMC1 101028Z 23005KT M05/M05 A3037 RMK A01 T10481051  RH  098%=      5-min Rain = 0
KMC1 101029Z 22004KT M05/M05 A3037 RMK A01 T10481051  RH  098%=      5-min Rain = 0
KMC1 101030Z 22004KT M05/M05 A3037 RMK A01 T10481051  RH  098%=      5-min Rain = 0
KMC1 101031Z 23004KT M05/M05 A3037 RMK A01 T10481051  RH  098%=      5-min Rain = 0
KMC1 101032Z 23004KT M05/M05 A3037 RMK A01 T10481051  RH  098%=      5-min Rain = 0
KMC1 101033Z 23004KT M05/M05 A3037 RMK A01 T10481051  RH  098%=      5-min Rain = 0
KMC1 101034Z 23004KT M05/M05 A3037 RMK A01 T10481051  RH  098%=      5-min Rain = 0
KMC1 101035Z 23004KT M05/M05 A3037 RMK A01 T10481051  RH  098%=      5-min Rain = 0
KMC1 101036Z 23004KT M05/M05 A3037 RMK A01 T10481051  RH  098%=      5-min Rain = 0
KMC1 101037Z 23004KT M05/M05 A3037 RMK A01 T10481050  RH  098%=      5-min Rain = 0
KMC1 101038Z 23005KT M05/M05 A3037 RMK A01 T10481050  RH  098%=      5-min Rain = 0
KMC1 101039Z 23005KT M05/M05 A3037 RMK A01 T10481051  RH  098%=      5-min Rain = 0
KMC1 101040Z 24005KT M05/M05 A3037 RMK A01 T10481050  RH  098%=      5-min Rain = 0
KMC1 101041Z 24004KT M05/M05 A3037 RMK A01 T10481051  RH  098%=      5-min Rain = 0
KMC1 101042Z 24005KT M05/M05 A3037 RMK A01 T10481051  RH  098%=      5-min Rain = 0
KMC1 101043Z 23004KT M05/M05 A3037 RMK A01 T10481051  RH  098%=      5-min Rain = 0
KMC1 101044Z 23004KT M05/M05 A3037 RMK A01 T10481051  RH  098%=      5-min Rain = 0
KMC1 101045Z 23004KT M05/M05 A3037 RMK A01 T10471050  RH  098%=      5-min Rain = 0
KMC1 101046Z 23004KT M05/M05 A3037 RMK A01 T10471049  RH  098%=      5-min Rain = 0
KMC1 101047Z 23004KT M05/M05 A3037 RMK A01 T10471049  RH  098%=      5-min Rain = 0
KMC1 101048Z 23004KT M05/M05 A3037 RMK A01 T10471049  RH  098%=      5-min Rain = 0
KMC1 101049Z 23004KT M05/M05 A3037 RMK A01 T10461048  RH  098%=      5-min Rain = 0
KMC1 101050Z 23004KT M05/M05 A3037 RMK A01 T10461048  RH  098%=      5-min Rain = 0
KMC1 101051Z 23004KT M05/M05 A3037 RMK A01 T10461048  RH  098%=      5-min Rain = 0
KMC1 101052Z 23004KT M05/M05 A3037 RMK A01 T10461048  RH  098%=      5-min Rain = 0
KMC1 101053Z 23004KT M05/M05 A3037 RMK A01 T10461048  RH  098%=      5-min Rain = 0
KMC1 101054Z 22004KT M05/M05 A3037 RMK A01 T10461048  RH  098%=      5-min Rain = 0
KMC1 101055Z 22004KT M05/M05 A3037 RMK A01 T10461048  RH  098%=      5-min Rain = 0
KMC1 101056Z 23004KT M05/M05 A3037 RMK A01 T10461048  RH  098%=      5-min Rain = 0
KMC1 101057Z 23004KT M05/M05 A3037 RMK A01 T10461049  RH  098%=      5-min Rain = 0
KMC1 101058Z 23004KT M05/M05 A3037 RMK A01 T10461049  RH  098%=      5-min Rain = 0
KMC1 101059Z 23004KT M05/M05 A3037 RMK A01 T10451048  RH  098%=      5-min Rain = 0
KMC1 101100Z 23004KT M04/M05 A3037 RMK A01 T10441047  RH  099%=      5-min Rain = 0
KMC1 101101Z 24004KT M04/M05 A3037 RMK A01 T10441046  RH  099%=      5-min Rain = 0
KMC1 101102Z 24004KT M04/M05 A3037 RMK A01 T10441046  RH  099%=      5-min Rain = 0
KMC1 101103Z 24004KT M04/M05 A3037 RMK A01 T10441046  RH  099%=      5-min Rain = 0
KMC1 101104Z 24004KT M04/M05 A3037 RMK A01 T10441046  RH  099%=      5-min Rain = 0
KMC1 101105Z 24004KT M04/M05 A3037 RMK A01 T10441046  RH  099%=      5-min Rain = 0
KMC1 101106Z 24004KT M04/M05 A3037 RMK A01 T10431045  RH  099%=      5-min Rain = 0
KMC1 101107Z 24004KT M04/M05 A3037 RMK A01 T10431045  RH  099%=      5-min Rain = 0
KMC1 101108Z 24004KT M04/M05 A3037 RMK A01 T10431045  RH  099%=      5-min Rain = 0
KMC1 101109Z 24004KT M04/M04 A3037 RMK A01 T10431044  RH  099%=      5-min Rain = 0
KMC1 101110Z 24004KT M04/M05 A3037 RMK A01 T10431045  RH  099%=      5-min Rain = 0
KMC1 101111Z 24004KT M04/M05 A3037 RMK A01 T10431045  RH  098%=      5-min Rain = 0
KMC1 101112Z 24004KT M04/M05 A3037 RMK A01 T10441046  RH  098%=      5-min Rain = 0
KMC1 101113Z 24004KT M04/M05 A3037 RMK A01 T10441047  RH  098%=      5-min Rain = 0
KMC1 101114Z 23004KT M05/M05 A3037 RMK A01 T10451047  RH  098%=      5-min Rain = 0
KMC1 101115Z 23004KT M05/M05 A3037 RMK A01 T10461049  RH  098%=      5-min Rain = 0
KMC1 101116Z 23004KT M05/M05 A3037 RMK A01 T10471050  RH  098%=      5-min Rain = 0
KMC1 101117Z 23004KT M05/M05 A3037 RMK A01 T10471050  RH  098%=      5-min Rain = 0
KMC1 101118Z 23004KT M05/M05 A3037 RMK A01 T10471051  RH  098%=      5-min Rain = 0
KMC1 101119Z 23004KT M05/M05 A3037 RMK A01 T10471051  RH  098%=      5-min Rain = 0
KMC1 101120Z 23005KT M05/M05 A3037 RMK A01 T10481051  RH  098%=      5-min Rain = 0
KMC1 101121Z 23005KT M05/M05 A3037 RMK A01 T10481051  RH  098%=      5-min Rain = 0
KMC1 101122Z 23005KT M05/M05 A3037 RMK A01 T10481051  RH  098%=      5-min Rain = 0
KMC1 101123Z 23004KT M05/M05 A3037 RMK A01 T10481051  RH  098%=      5-min Rain = 0
KMC1 101124Z 23005KT M05/M05 A3037 RMK A01 T10481051  RH  098%=      5-min Rain = 0
KMC1 101125Z 22004KT M05/M05 A3037 RMK A01 T10481052  RH  098%=      5-min Rain = 0
KMC1 101126Z 23004KT M05/M05 A3037 RMK A01 T10481051  RH  098%=      5-min Rain = 0
KMC1 101127Z 22004KT M05/M05 A3037 RMK A01 T10481051  RH  098%=      5-min Rain = 0
KMC1 101128Z 23004KT M05/M05 A3037 RMK A01 T10481051  RH  098%=      5-min Rain = 0
KMC1 101129Z 23004KT M05/M05 A3037 RMK A01 T10481051  RH  098%=      5-min Rain = 0
KMC1 101130Z 22004KT M05/M05 A3037 RMK A01 T10481051  RH  098%=      5-min Rain = 0
KMC1 101131Z 22005KT M05/M05 A3037 RMK A01 T10481051  RH  098%=      5-min Rain = 0
KMC1 101132Z 22005KT M05/M05 A3037 RMK A01 T10481051  RH  098%=      5-min Rain = 0
KMC1 101133Z 23005KT M05/M05 A3037 RMK A01 T10481052  RH  098%=      5-min Rain = 0
KMC1 101134Z 23004KT M05/M05 A3037 RMK A01 T10481052  RH  098%=      5-min Rain = 0
KMC1 101135Z 23004KT M05/M05 A3037 RMK A01 T10481052  RH  098%=      5-min Rain = 0
KMC1 101136Z 23004KT M05/M05 A3037 RMK A01 T10481051  RH  098%=      5-min Rain = 0
KMC1 101137Z 23004KT M05/M05 A3037 RMK A01 T10481052  RH  097%=      5-min Rain = 0
KMC1 101138Z 23004KT M05/M05 A3037 RMK A01 T10491053  RH  097%=      5-min Rain = 0
KMC1 101139Z 22004KT M05/M05 A3037 RMK A01 T10501054  RH  097%=      5-min Rain = 0
KMC1 101140Z 22004KT M05/M05 A3037 RMK A01 T10501054  RH  097%=      5-min Rain = 0
KMC1 101141Z 23004KT M05/M06 A3037 RMK A01 T10511055  RH  097%=      5-min Rain = 0
KMC1 101142Z 22004KT M05/M06 A3037 RMK A01 T10511056  RH  097%=      5-min Rain = 0
KMC1 101143Z 22004KT M05/M06 A3037 RMK A01 T10511056  RH  097%=      5-min Rain = 0
KMC1 101144Z 23004KT M05/M06 A3037 RMK A01 T10521057  RH  097%=      5-min Rain = 0
KMC1 101145Z 22004KT M05/M06 A3037 RMK A01 T10521057  RH  097%=      5-min Rain = 0
KMC1 101146Z 23004KT M05/M06 A3037 RMK A01 T10521056  RH  097%=      5-min Rain = 0
KMC1 101147Z 22004KT M05/M06 A3037 RMK A01 T10521057  RH  097%=      5-min Rain = 0
KMC1 101148Z 22004KT M05/M06 A3037 RMK A01 T10521057  RH  097%=      5-min Rain = 0
KMC1 101149Z 23004KT M05/M06 A3037 RMK A01 T10521056  RH  097%=      5-min Rain = 0
KMC1 101150Z 23003KT M05/M06 A3037 RMK A01 T10521056  RH  097%=      5-min Rain = 0
KMC1 101151Z 23004KT M05/M06 A3037 RMK A01 T10521056  RH  097%=      5-min Rain = 0
KMC1 101152Z 24003KT M05/M06 A3037 RMK A01 T10521056  RH  097%=      5-min Rain = 0
KMC1 101153Z 24003KT M05/M06 A3037 RMK A01 T10521056  RH  097%=      5-min Rain = 0
KMC1 101154Z 23003KT M05/M06 A3037 RMK A01 T10531057  RH  097%=      5-min Rain = 0
KMC1 101155Z 23003KT M05/M06 A3037 RMK A01 T10531058  RH  097%=      5-min Rain = 0
KMC1 101156Z 23004KT M05/M06 A3037 RMK A01 T10541058  RH  097%=      5-min Rain = 0
KMC1 101157Z 23004KT M05/M06 A3037 RMK A01 T10541058  RH  097%=      5-min Rain = 0
KMC1 101158Z 23004KT M05/M06 A3037 RMK A01 T10541058  RH  097%=      5-min Rain = 0
KMC1 101159Z 23004KT M05/M06 A3037 RMK A01 T10541059  RH  097%=      5-min Rain = 0
KMC1 101200Z 24004KT M05/M06 A3037 RMK A01 T10541059  RH  097%=      5-min Rain = 0
KMC1 101201Z 23004KT M06/M06 A3037 RMK A01 T10551059  RH  097%=      5-min Rain = 0
KMC1 101202Z 24004KT M06/M06 A3037 RMK A01 T10551060  RH  097%=      5-min Rain = 0
KMC1 101203Z 23004KT M06/M06 A3038 RMK A01 T10551060  RH  097%=      5-min Rain = 0
KMC1 101204Z 23004KT M06/M06 A3038 RMK A01 T10561060  RH  097%=      5-min Rain = 0
KMC1 101205Z 23004KT M06/M06 A3038 RMK A01 T10561061  RH  097%=      5-min Rain = 0
KMC1 101206Z 23004KT M06/M06 A3038 RMK A01 T10561061  RH  096%=      5-min Rain = 0
KMC1 101207Z 23004KT M06/M06 A3038 RMK A01 T10561061  RH  096%=      5-min Rain = 0
KMC1 101208Z 24004KT M06/M06 A3038 RMK A01 T10571062  RH  096%=      5-min Rain = 0
KMC1 101209Z 24004KT M06/M06 A3038 RMK A01 T10571062  RH  096%=      5-min Rain = 0
KMC1 101210Z 24004KT M06/M06 A3038 RMK A01 T10571062  RH  096%=      5-min Rain = 0
KMC1 101211Z 24004KT M06/M06 A3038 RMK A01 T10571062  RH  096%=      5-min Rain = 0
KMC1 101212Z 24004KT M06/M06 A3038 RMK A01 T10571062  RH  096%=      5-min Rain = 0
KMC1 101213Z 24004KT M06/M06 A3038 RMK A01 T10581063  RH  096%=      5-min Rain = 0
KMC1 101214Z 24003KT M06/M06 A3038 RMK A01 T10581063  RH  096%=      5-min Rain = 0
KMC1 101215Z 24003KT M06/M06 A3038 RMK A01 T10581063  RH  096%=      5-min Rain = 0
KMC1 101216Z 24003KT M06/M06 A3038 RMK A01 T10581063  RH  096%=      5-min Rain = 0
KMC1 101217Z 24004KT M06/M06 A3038 RMK A01 T10581063  RH  096%=      5-min Rain = 0
KMC1 101218Z 24004KT M06/M06 A3038 RMK A01 T10591064  RH  096%=      5-min Rain = 0
KMC1 101219Z 23004KT M06/M06 A3038 RMK A01 T10591064  RH  096%=      5-min Rain = 0
KMC1 101220Z 23005KT M06/M06 A3038 RMK A01 T10591063  RH  097%=      5-min Rain = 0
KMC1 101221Z 23005KT M06/M06 A3038 RMK A01 T10591063  RH  097%=      5-min Rain = 0
KMC1 101222Z 23005KT M06/M06 A3038 RMK A01 T10591063  RH  097%=      5-min Rain = 0
KMC1 101223Z 23005KT M06/M06 A3038 RMK A01 T10591063  RH  097%=      5-min Rain = 0
KMC1 101224Z 23005KT M06/M06 A3038 RMK A01 T10581062  RH  097%=      5-min Rain = 0
KMC1 101225Z 24005KT M06/M06 A3038 RMK A01 T10591063  RH  097%=      5-min Rain = 0
KMC1 101226Z 23004KT M06/M06 A3038 RMK A01 T10581061  RH  097%=      5-min Rain = 0
KMC1 101227Z 23004KT M06/M06 A3038 RMK A01 T10571061  RH  097%=      5-min Rain = 0
KMC1 101228Z 23004KT M06/M06 A3038 RMK A01 T10581061  RH  097%=      5-min Rain = 0
KMC1 101229Z 23004KT M06/M06 A3038 RMK A01 T10571061  RH  097%=      5-min Rain = 0
KMC1 101230Z 23005KT M06/M06 A3038 RMK A01 T10571061  RH  097%=      5-min Rain = 0
KMC1 101231Z 23004KT M06/M06 A3038 RMK A01 T10581061  RH  097%=      5-min Rain = 0
KMC1 101232Z 24004KT M06/M06 A3038 RMK A01 T10571061  RH  097%=      5-min Rain = 0
KMC1 101233Z 24004KT M06/M06 A3038 RMK A01 T10571061  RH  097%=      5-min Rain = 0
KMC1 101234Z 24004KT M06/M06 A3038 RMK A01 T10571061  RH  097%=      5-min Rain = 0
KMC1 101235Z 24005KT M06/M06 A3038 RMK A01 T10581062  RH  097%=      5-min Rain = 0
KMC1 101236Z 24005KT M06/M06 A3038 RMK A01 T10571061  RH  097%=      5-min Rain = 0
KMC1 101237Z 24005KT M06/M06 A3038 RMK A01 T10571061  RH  097%=      5-min Rain = 0
KMC1 101238Z 24004KT M06/M06 A3038 RMK A01 T10571061  RH  097%=      5-min Rain = 0
KMC1 101239Z 23004KT M06/M06 A3038 RMK A01 T10571060  RH  097%=      5-min Rain = 0
KMC1 101240Z 23004KT M06/M06 A3039 RMK A01 T10561059  RH  098%=      5-min Rain = 0
KMC1 101241Z 23004KT M06/M06 A3039 RMK A01 T10551057  RH  098%=      5-min Rain = 0
KMC1 101242Z 23004KT M05/M06 A3039 RMK A01 T10531056  RH  098%=      5-min Rain = 0
KMC1 101243Z 23004KT M05/M06 A3039 RMK A01 T10531056  RH  098%=      5-min Rain = 0
KMC1 101244Z 23004KT M05/M06 A3039 RMK A01 T10531056  RH  098%=      5-min Rain = 0
KMC1 101245Z 23004KT M05/M06 A3039 RMK A01 T10531056  RH  098%=      5-min Rain = 0
KMC1 101246Z 23004KT M05/M06 A3039 RMK A01 T10531055  RH  098%=      5-min Rain = 0
KMC1 101247Z 24004KT M05/M06 A3039 RMK A01 T10531056  RH  098%=      5-min Rain = 0
KMC1 101248Z 23004KT M05/M06 A3039 RMK A01 T10531055  RH  098%=      5-min Rain = 0
KMC1 101249Z 23004KT M05/M06 A3039 RMK A01 T10531056  RH  098%=      5-min Rain = 0
KMC1 101250Z 22004KT M05/M06 A3039 RMK A01 T10531056  RH  098%=      5-min Rain = 0
KMC1 101251Z 23004KT M05/M06 A3039 RMK A01 T10531056  RH  098%=      5-min Rain = 0
KMC1 101252Z 23004KT M05/M06 A3039 RMK A01 T10541057  RH  098%=      5-min Rain = 0
KMC1 101253Z 23004KT M05/M06 A3039 RMK A01 T10541058  RH  097%=      5-min Rain = 0
KMC1 101254Z 23003KT M06/M06 A3039 RMK A01 T10551059  RH  097%=      5-min Rain = 0
KMC1 101255Z 23003KT M06/M06 A3039 RMK A01 T10551059  RH  097%=      5-min Rain = 0
KMC1 101256Z 22004KT M06/M06 A3039 RMK A01 T10561060  RH  097%=      5-min Rain = 0
KMC1 101257Z 22003KT M06/M06 A3039 RMK A01 T10561061  RH  097%=      5-min Rain = 0
KMC1 101258Z 22004KT M06/M06 A3039 RMK A01 T10571061  RH  097%=      5-min Rain = 0
KMC1 101259Z 22003KT M06/M06 A3039 RMK A01 T10571062  RH  097%=      5-min Rain = 0
KMC1 101300Z 23003KT M06/M06 A3039 RMK A01 T10581063  RH  096%=      5-min Rain = 0
KMC1 101301Z 22003KT M06/M06 A3039 RMK A01 T10581063  RH  096%=      5-min Rain = 0
KMC1 101302Z 22003KT M06/M06 A3039 RMK A01 T10581063  RH  096%=      5-min Rain = 0
KMC1 101303Z 22003KT M06/M06 A3039 RMK A01 T10591064  RH  096%=      5-min Rain = 0
KMC1 101304Z 22003KT M06/M06 A3039 RMK A01 T10591064  RH  096%=      5-min Rain = 0
KMC1 101305Z 22003KT M06/M07 A3039 RMK A01 T10601065  RH  096%=      5-min Rain = 0
KMC1 101306Z 22003KT M06/M07 A3039 RMK A01 T10601065  RH  096%=      5-min Rain = 0
KMC1 101307Z 22003KT M06/M07 A3039 RMK A01 T10601065  RH  096%=      5-min Rain = 0
KMC1 101308Z 22003KT M06/M07 A3039 RMK A01 T10601065  RH  096%=      5-min Rain = 0
KMC1 101309Z 22003KT M06/M07 A3039 RMK A01 T10611066  RH  096%=      5-min Rain = 0
KMC1 101310Z 22003KT M06/M07 A3039 RMK A01 T10601066  RH  096%=      5-min Rain = 0
KMC1 101311Z 22003KT M06/M07 A3039 RMK A01 T10611066  RH  096%=      5-min Rain = 0
KMC1 101312Z 22003KT M06/M07 A3039 RMK A01 T10611066  RH  096%=      5-min Rain = 0
KMC1 101313Z 22003KT M06/M07 A304 RMK A01 T10611066  RH  096%=      5-min Rain = 0
KMC1 101314Z 22003KT M06/M07 A304 RMK A01 T10611066  RH  096%=      5-min Rain = 0
KMC1 101315Z 22003KT M06/M07 A304 RMK A01 T10611066  RH  096%=      5-min Rain = 0
KMC1 101316Z 22003KT M06/M07 A304 RMK A01 T10611066  RH  096%=      5-min Rain = 0
KMC1 101317Z 22003KT M06/M07 A304 RMK A01 T10611066  RH  096%=      5-min Rain = 0
KMC1 101318Z 21003KT M06/M07 A304 RMK A01 T10611066  RH  096%=      5-min Rain = 0
KMC1 101319Z 22003KT M06/M07 A304 RMK A01 T10611066  RH  096%=      5-min Rain = 0
KMC1 101320Z 22003KT M06/M07 A304 RMK A01 T10611066  RH  096%=      5-min Rain = 0
KMC1 101321Z 22003KT M06/M07 A304 RMK A01 T10621067  RH  096%=      5-min Rain = 0
KMC1 101322Z 22004KT M06/M07 A304 RMK A01 T10621067  RH  096%=      5-min Rain = 0
KMC1 101323Z 22004KT M06/M07 A304 RMK A01 T10621067  RH  096%=      5-min Rain = 0
KMC1 101324Z 22004KT M06/M07 A304 RMK A01 T10621067  RH  096%=      5-min Rain = 0
KMC1 101325Z 22004KT M06/M07 A304 RMK A01 T10621067  RH  096%=      5-min Rain = 0
KMC1 101326Z 21004KT M06/M07 A304 RMK A01 T10621067  RH  096%=      5-min Rain = 0
KMC1 101327Z 22004KT M06/M07 A304 RMK A01 T10621067  RH  096%=      5-min Rain = 0
KMC1 101328Z 22004KT M06/M07 A304 RMK A01 T10611066  RH  096%=      5-min Rain = 0
KMC1 101329Z 22004KT M06/M07 A304 RMK A01 T10611066  RH  096%=      5-min Rain = 0
KMC1 101330Z 22004KT M06/M07 A304 RMK A01 T10621067  RH  096%=      5-min Rain = 0
KMC1 101331Z 22004KT M06/M07 A304 RMK A01 T10611067  RH  096%=      5-min Rain = 0
KMC1 101332Z 22005KT M06/M07 A304 RMK A01 T10621067  RH  096%=      5-min Rain = 0
KMC1 101333Z 22005KT M06/M07 A304 RMK A01 T10611067  RH  096%=      5-min Rain = 0
KMC1 101334Z 22005KT M06/M07 A304 RMK A01 T10611066  RH  096%=      5-min Rain = 0
KMC1 101335Z 23004KT M06/M07 A304 RMK A01 T10601065  RH  096%=      5-min Rain = 0
KMC1 101336Z 22005KT M06/M07 A304 RMK A01 T10601065  RH  097%=      5-min Rain = 0
KMC1 101337Z 22004KT M06/M06 A304 RMK A01 T10591064  RH  097%=      5-min Rain = 0
KMC1 101338Z 22004KT M06/M06 A304 RMK A01 T10591064  RH  097%=      5-min Rain = 0
KMC1 101339Z 22004KT M06/M06 A304 RMK A01 T10591063  RH  097%=      5-min Rain = 0
KMC1 101340Z 22004KT M06/M06 A304 RMK A01 T10581063  RH  097%=      5-min Rain = 0
KMC1 101341Z 22004KT M06/M06 A304 RMK A01 T10581062  RH  097%=      5-min Rain = 0
KMC1 101342Z 22004KT M06/M06 A304 RMK A01 T10571061  RH  097%=      5-min Rain = 0
KMC1 101343Z 22004KT M06/M06 A304 RMK A01 T10561060  RH  097%=      5-min Rain = 0
KMC1 101344Z 22005KT M06/M06 A304 RMK A01 T10561060  RH  097%=      5-min Rain = 0
KMC1 101345Z 22004KT M06/M06 A304 RMK A01 T10551060  RH  097%=      5-min Rain = 0
KMC1 101346Z 23004KT M06/M06 A304 RMK A01 T10551059  RH  097%=      5-min Rain = 0
KMC1 101347Z 22004KT M05/M06 A304 RMK A01 T10541058  RH  097%=      5-min Rain = 0
KMC1 101348Z 21005KT M05/M06 A304 RMK A01 T10531058  RH  097%=      5-min Rain = 0
KMC1 101349Z 22004KT M05/M06 A304 RMK A01 T10531057  RH  097%=      5-min Rain = 0
KMC1 101350Z 22004KT M05/M06 A304 RMK A01 T10521056  RH  097%=      5-min Rain = 0
KMC1 101351Z 22004KT M05/M06 A304 RMK A01 T10511056  RH  097%=      5-min Rain = 0
KMC1 101352Z 22004KT M05/M06 A304 RMK A01 T10501055  RH  097%=      5-min Rain = 0
KMC1 101353Z 22004KT M05/M05 A304 RMK A01 T10491054  RH  097%=      5-min Rain = 0
KMC1 101354Z 22004KT M05/M05 A304 RMK A01 T10491054  RH  096%=      5-min Rain = 0
KMC1 101355Z 22004KT M05/M05 A304 RMK A01 T10481053  RH  096%=      5-min Rain = 0
KMC1 101356Z 22004KT M05/M05 A304 RMK A01 T10471053  RH  096%=      5-min Rain = 0
KMC1 101357Z 22004KT M05/M05 A304 RMK A01 T10471052  RH  096%=      5-min Rain = 0
KMC1 101358Z 22004KT M05/M05 A304 RMK A01 T10461051  RH  096%=      5-min Rain = 0
KMC1 101359Z 22004KT M05/M05 A304 RMK A01 T10451051  RH  096%=      5-min Rain = 0
KMC1 101400Z 22004KT M05/M05 A304 RMK A01 T10451050  RH  096%=      5-min Rain = 0
KMC1 101401Z 22004KT M04/M05 A304 RMK A01 T10441050  RH  096%=      5-min Rain = 0
KMC1 101402Z 23004KT M04/M05 A304 RMK A01 T10441050  RH  096%=      5-min Rain = 0
KMC1 101403Z 22004KT M04/M05 A304 RMK A01 T10431050  RH  095%=      5-min Rain = 0
KMC1 101404Z 22004KT M04/M05 A304 RMK A01 T10431049  RH  095%=      5-min Rain = 0
KMC1 101405Z 23004KT M04/M05 A304 RMK A01 T10421049  RH  095%=      5-min Rain = 0
KMC1 101406Z 23003KT M04/M05 A3041 RMK A01 T10421049  RH  095%=      5-min Rain = 0
KMC1 101407Z 23003KT M04/M05 A3041 RMK A01 T10411049  RH  095%=      5-min Rain = 0
KMC1 101408Z 23003KT M04/M05 A3041 RMK A01 T10411048  RH  095%=      5-min Rain = 0
KMC1 101409Z 23003KT M04/M05 A3041 RMK A01 T10401047  RH  095%=      5-min Rain = 0
KMC1 101410Z 23003KT M04/M05 A3041 RMK A01 T10401047  RH  095%=      5-min Rain = 0
KMC1 101411Z 23003KT M04/M05 A3041 RMK A01 T10401048  RH  094%=      5-min Rain = 0
KMC1 101412Z 23003KT M04/M05 A3041 RMK A01 T10401048  RH  094%=      5-min Rain = 0
KMC1 101413Z 23004KT M04/M05 A3041 RMK A01 T10391048  RH  094%=      5-min Rain = 0
KMC1 101414Z 22003KT M04/M05 A3041 RMK A01 T10391048  RH  094%=      5-min Rain = 0
KMC1 101415Z 22004KT M04/M05 A3041 RMK A01 T10391048  RH  094%=      5-min Rain = 0
KMC1 101416Z 22003KT M04/M05 A3041 RMK A01 T10381047  RH  094%=      5-min Rain = 0
KMC1 101417Z 23003KT M04/M05 A3041 RMK A01 T10381047  RH  094%=      5-min Rain = 0
KMC1 101418Z 23002KT M04/M05 A3041 RMK A01 T10381047  RH  094%=      5-min Rain = 0
KMC1 101419Z 23003KT M04/M05 A3041 RMK A01 T10371046  RH  094%=      5-min Rain = 0
KMC1 101420Z 22002KT M04/M05 A3041 RMK A01 T10371046  RH  094%=      5-min Rain = 0
KMC1 101421Z 21003KT M04/M05 A3041 RMK A01 T10361045  RH  094%=      5-min Rain = 0
KMC1 101422Z 22002KT M04/M05 A3041 RMK A01 T10361045  RH  094%=      5-min Rain = 0
KMC1 101423Z 22002KT M04/M04 A3041 RMK A01 T10351044  RH  094%=      5-min Rain = 0
KMC1 101424Z 23002KT M04/M04 A3041 RMK A01 T10351043  RH  094%=      5-min Rain = 0
KMC1 101425Z 22002KT M03/M04 A3041 RMK A01 T10341043  RH  094%=      5-min Rain = 0
KMC1 101426Z 22002KT M03/M04 A3041 RMK A01 T10341043  RH  094%=      5-min Rain = 0
KMC1 101427Z 22002KT M03/M04 A3041 RMK A01 T10331043  RH  093%=      5-min Rain = 0
KMC1 101428Z 23003KT M03/M04 A3041 RMK A01 T10331042  RH  093%=      5-min Rain = 0
KMC1 101429Z 23002KT M03/M04 A3041 RMK A01 T10321042  RH  093%=      5-min Rain = 0
KMC1 101430Z 23003KT M03/M04 A3041 RMK A01 T10321041  RH  094%=      5-min Rain = 0
KMC1 101431Z 23003KT M03/M04 A3041 RMK A01 T10311040  RH  093%=      5-min Rain = 0
KMC1 101432Z 23002KT M03/M04 A3041 RMK A01 T10311040  RH  093%=      5-min Rain = 0
KMC1 101433Z 23003KT M03/M04 A3041 RMK A01 T10301039  RH  094%=      5-min Rain = 0
KMC1 101434Z 22003KT M03/M04 A3041 RMK A01 T10291038  RH  094%=      5-min Rain = 0
KMC1 101435Z 23003KT M03/M04 A3041 RMK A01 T10291038  RH  094%=      5-min Rain = 0
KMC1 101436Z 22002KT M03/M04 A3041 RMK A01 T10281037  RH  094%=      5-min Rain = 0
KMC1 101437Z 22002KT M03/M04 A3041 RMK A01 T10281037  RH  094%=      5-min Rain = 0
KMC1 101438Z 22002KT M03/M04 A3041 RMK A01 T10271036  RH  094%=      5-min Rain = 0
KMC1 101439Z 22003KT M03/M03 A3041 RMK A01 T10261034  RH  094%=      5-min Rain = 0
KMC1 101440Z 22002KT M03/M03 A3042 RMK A01 T10261034  RH  094%=      5-min Rain = 0
KMC1 101441Z 21003KT M03/M03 A3042 RMK A01 T10251034  RH  094%=      5-min Rain = 0
KMC1 101442Z 22002KT M03/M03 A3042 RMK A01 T10251034  RH  094%=      5-min Rain = 0
KMC1 101443Z 21002KT M02/M03 A3042 RMK A01 T10231031  RH  094%=      5-min Rain = 0
KMC1 101444Z 21003KT M02/M03 A3042 RMK A01 T10221030  RH  095%=      5-min Rain = 0
KMC1 101445Z 21003KT M02/M03 A3042 RMK A01 T10211028  RH  095%=      5-min Rain = 0
KMC1 101446Z 21003KT M02/M03 A3042 RMK A01 T10201027  RH  095%=      5-min Rain = 0
KMC1 101447Z 21003KT M02/M03 A3042 RMK A01 T10191026  RH  095%=      5-min Rain = 0
KMC1 101448Z 21002KT M02/M03 A3042 RMK A01 T10191026  RH  095%=      5-min Rain = 0
KMC1 101449Z 21002KT M02/M02 A3042 RMK A01 T10171024  RH  095%=      5-min Rain = 0
KMC1 101450Z 22002KT M02/M02 A3042 RMK A01 T10171024  RH  095%=      5-min Rain = 0
KMC1 101451Z 21003KT M02/M02 A3042 RMK A01 T10161023  RH  095%=      5-min Rain = 0
KMC1 101452Z 21002KT M02/M02 A3042 RMK A01 T10151022  RH  095%=      5-min Rain = 0
KMC1 101453Z 22002KT M01/M02 A3042 RMK A01 T10131020  RH  095%=      5-min Rain = 0
KMC1 101454Z 22002KT M01/M02 A3042 RMK A01 T10131019  RH  095%=      5-min Rain = 0
KMC1 101455Z 21003KT M01/M02 A3042 RMK A01 T10121019  RH  095%=      5-min Rain = 0
KMC1 101456Z 22003KT M01/M02 A3042 RMK A01 T10111019  RH  095%=      5-min Rain = 0
KMC1 101457Z 22003KT M01/M02 A3042 RMK A01 T10111018  RH  095%=      5-min Rain = 0
KMC1 101458Z 21002KT M01/M02 A3042 RMK A01 T10091017  RH  095%=      5-min Rain = 0
KMC1 101459Z 22002KT M01/M02 A3042 RMK A01 T10091016  RH  095%=      5-min Rain = 0
KMC1 101500Z 23002KT M01/M01 A3042 RMK A01 T10071014  RH  095%=      5-min Rain = 0
KMC1 101501Z 22002KT M01/M01 A3042 RMK A01 T10061013  RH  095%=      5-min Rain = 0
KMC1 101502Z 23003KT M01/M01 A3042 RMK A01 T10051012  RH  095%=      5-min Rain = 0
KMC1 101503Z 23003KT M01/M01 A3042 RMK A01 T10051012  RH  095%=      5-min Rain = 0
KMC1 101504Z 24002KT M00/M01 A3042 RMK A01 T10041013  RH  094%=      5-min Rain = 0
KMC1 101505Z 23002KT M00/M01 A3042 RMK A01 T10031012  RH  094%=      5-min Rain = 0
KMC1 101506Z 24003KT M00/M01 A3042 RMK A01 T10021011  RH  094%=      5-min Rain = 0
KMC1 101507Z 24002KT M00/M01 A3042 RMK A01 T10021011  RH  093%=      5-min Rain = 0
KMC1 101508Z 24003KT M00/M01 A3042 RMK A01 T10011011  RH  093%=      5-min Rain = 0
KMC1 101509Z 22002KT 00/01 A3042 RMK A01 T000000-9  RH  093%=      5-min Rain = 0
KMC1 101510Z 23002KT 00/M01 A3042 RMK A01 T00021008  RH  094%=      5-min Rain = 0
KMC1 101511Z 25002KT 00/M01 A3042 RMK A01 T00021007  RH  094%=      5-min Rain = 0
KMC1 101512Z 23003KT 00/M01 A3042 RMK A01 T00031006  RH  093%=      5-min Rain = 0
KMC1 101513Z 24003KT 01/M01 A3042 RMK A01 T00051005  RH  093%=      5-min Rain = 0
KMC1 101514Z 23003KT 01/M01 A3042 RMK A01 T00051006  RH  092%=      5-min Rain = 0
KMC1 101515Z 23003KT 01/M01 A3042 RMK A01 T00051007  RH  092%=      5-min Rain = 0
KMC1 101516Z 22003KT 00/M01 A3042 RMK A01 T00041008  RH  091%=      5-min Rain = 0
KMC1 101517Z 23003KT 00/M01 A3042 RMK A01 T00041008  RH  091%=      5-min Rain = 0
KMC1 101518Z 23002KT 01/M01 A3042 RMK A01 T00051008  RH  091%=      5-min Rain = 0
KMC1 101519Z 25002KT 01/M01 A3042 RMK A01 T00061005  RH  092%=      5-min Rain = 0
KMC1 101520Z 24002KT 01/M00 A3042 RMK A01 T00071004  RH  092%=      5-min Rain = 0
KMC1 101521Z 23002KT 01/M00 A3042 RMK A01 T00091002  RH  093%=      5-min Rain = 0
KMC1 101522Z 23001KT 01/M00 A3042 RMK A01 T00091002  RH  092%=      5-min Rain = 0
KMC1 101523Z 23002KT 01/00 A3043 RMK A01 T001000-0  RH  093%=      5-min Rain = 0
KMC1 101524Z 24002KT 01/00 A3043 RMK A01 T00120002  RH  093%=      5-min Rain = 0
KMC1 101525Z 23002KT 01/00 A3043 RMK A01 T00120001  RH  092%=      5-min Rain = 0
KMC1 101526Z 24003KT 01/M00 A3043 RMK A01 T00121002  RH  090%=      5-min Rain = 0
KMC1 101527Z 25002KT 01/M00 A3043 RMK A01 T00121001  RH  091%=      5-min Rain = 0
KMC1 101528Z 25003KT 01/00 A3043 RMK A01 T00140001  RH  091%=      5-min Rain = 0
KMC1 101529Z 24003KT 01/M00 A3043 RMK A01 T00141001  RH  090%=      5-min Rain = 0
KMC1 101530Z 25003KT 01/M00 A3043 RMK A01 T00141001  RH  090%=      5-min Rain = 0
KMC1 101531Z 25003KT 02/00 A3043 RMK A01 T00160002  RH  091%=      5-min Rain = 0
KMC1 101532Z 25003KT 02/00 A3043 RMK A01 T00170004  RH  091%=      5-min Rain = 0
KMC1 101533Z 22002KT 02/00 A3043 RMK A01 T00180002  RH  090%=      5-min Rain = 0
KMC1 101534Z 22003KT 02/00 A3043 RMK A01 T00190003  RH  089%=      5-min Rain = 0
KMC1 101535Z 23003KT 02/01 A3043 RMK A01 T00200006  RH  090%=      5-min Rain = 0
KMC1 101536Z 23003KT 02/01 A3043 RMK A01 T00210006  RH  090%=      5-min Rain = 0
KMC1 101537Z 23002KT 02/00 A3043 RMK A01 T00220004  RH  088%=      5-min Rain = 0
KMC1 101538Z 24002KT 02/01 A3043 RMK A01 T00230006  RH  089%=      5-min Rain = 0
KMC1 101539Z 23001KT 02/01 A3043 RMK A01 T00240008  RH  089%=      5-min Rain = 0
KMC1 101540Z 24002KT 03/01 A3043 RMK A01 T00250008  RH  089%=      5-min Rain = 0
KMC1 101541Z 25002KT 03/01 A3043 RMK A01 T00260008  RH  088%=      5-min Rain = 0
KMC1 101542Z 25003KT 03/01 A3043 RMK A01 T00280009  RH  088%=      5-min Rain = 0
KMC1 101543Z 25003KT 03/01 A3043 RMK A01 T00280009  RH  087%=      5-min Rain = 0
KMC1 101544Z 27003KT 03/01 A3043 RMK A01 T00300010  RH  087%=      5-min Rain = 0
KMC1 101545Z 26003KT 03/01 A3043 RMK A01 T00300009  RH  086%=      5-min Rain = 0
KMC1 101546Z 25002KT 03/01 A3043 RMK A01 T00310009  RH  086%=      5-min Rain = 0
KMC1 101547Z 25003KT 03/01 A3043 RMK A01 T00320009  RH  085%=      5-min Rain = 0
KMC1 101548Z 25002KT 03/01 A3043 RMK A01 T00330009  RH  084%=      5-min Rain = 0
KMC1 101549Z 25002KT 03/01 A3043 RMK A01 T00340010  RH  084%=      5-min Rain = 0
KMC1 101550Z 26002KT 04/01 A3043 RMK A01 T00360013  RH  085%=      5-min Rain = 0
KMC1 101551Z 25002KT 04/01 A3043 RMK A01 T00370008  RH  081%=      5-min Rain = 0
KMC1 101552Z 25003KT 04/01 A3043 RMK A01 T00380012  RH  083%=      5-min Rain = 0
KMC1 101553Z 27003KT 04/01 A3043 RMK A01 T00400011  RH  081%=      5-min Rain = 0
KMC1 101554Z 26003KT 04/01 A3043 RMK A01 T00410009  RH  080%=      5-min Rain = 0
KMC1 101555Z 25002KT 04/01 A3043 RMK A01 T00420006  RH  078%=      5-min Rain = 0
KMC1 101556Z 24002KT 04/01 A3043 RMK A01 T00440012  RH  080%=      5-min Rain = 0
KMC1 101557Z 26002KT 05/01 A3043 RMK A01 T00450013  RH  079%=      5-min Rain = 0
KMC1 101558Z 26002KT 05/01 A3043 RMK A01 T00470013  RH  079%=      5-min Rain = 0
KMC1 101559Z 26003KT 05/01 A3043 RMK A01 T00480012  RH  077%=      5-min Rain = 0
KMC1 101600Z 28003KT 05/01 A3043 RMK A01 T00500013  RH  077%=      5-min Rain = 0
KMC1 101601Z 27003KT 05/01 A3043 RMK A01 T00510011  RH  075%=      5-min Rain = 0
KMC1 101602Z 27002KT 05/01 A3043 RMK A01 T00510009  RH  074%=      5-min Rain = 0
KMC1 101603Z 27003KT 05/01 A3043 RMK A01 T00510012  RH  076%=      5-min Rain = 0
KMC1 101604Z 27005KT 05/01 A3043 RMK A01 T00520005  RH  072%=      5-min Rain = 0
KMC1 101605Z 27004KT 05/01 A3043 RMK A01 T00520005  RH  072%=      5-min Rain = 0
KMC1 101606Z 27003KT 05/00 A3043 RMK A01 T00510003  RH  071%=      5-min Rain = 0
KMC1 101607Z 28005KT 05/00 A3043 RMK A01 T00510004  RH  072%=      5-min Rain = 0
KMC1 101608Z 27005KT 05/00 A3043 RMK A01 T00510001  RH  070%=      5-min Rain = 0
KMC1 101609Z 28004KT 05/00 A3043 RMK A01 T00520001  RH  070%=      5-min Rain = 0
KMC1 101610Z 27004KT 05/00 A3043 RMK A01 T00520001  RH  070%=      5-min Rain = 0
KMC1 101611Z 26004KT 05/00 A3043 RMK A01 T00520002  RH  070%=      5-min Rain = 0
KMC1 101612Z 26003KT 05/00 A3043 RMK A01 T00530002  RH  070%=      5-min Rain = 0
KMC1 101613Z 25004KT 05/00 A3043 RMK A01 T00540002  RH  069%=      5-min Rain = 0
KMC1 101614Z 26003KT 05/00 A3043 RMK A01 T005400-0  RH  068%=      5-min Rain = 0
KMC1 101615Z 26003KT 06/00 A3043 RMK A01 T00550004  RH  070%=      5-min Rain = 0
KMC1 101616Z 27003KT 06/01 A3043 RMK A01 T00560006  RH  070%=      5-min Rain = 0
KMC1 101617Z 28003KT 06/01 A3043 RMK A01 T00570007  RH  070%=      5-min Rain = 0
KMC1 101618Z 27003KT 06/01 A3043 RMK A01 T00580006  RH  069%=      5-min Rain = 0
KMC1 101619Z 28002KT 06/01 A3043 RMK A01 T00590010  RH  070%=      5-min Rain = 0
KMC1 101620Z 28004KT 06/01 A3043 RMK A01 T00610011  RH  070%=      5-min Rain = 0
KMC1 101621Z 29003KT 06/01 A3043 RMK A01 T00620007  RH  068%=      5-min Rain = 0
KMC1 101622Z 29003KT 06/01 A3043 RMK A01 T00620011  RH  070%=      5-min Rain = 0
KMC1 101623Z 29004KT 06/01 A3043 RMK A01 T00640011  RH  069%=      5-min Rain = 0
KMC1 101624Z 28003KT 07/01 A3043 RMK A01 T00650006  RH  066%=      5-min Rain = 0
KMC1 101625Z 29003KT 06/01 A3043 RMK A01 T00640007  RH  067%=      5-min Rain = 0
KMC1 101626Z 30003KT 07/01 A3043 RMK A01 T00650009  RH  068%=      5-min Rain = 0
KMC1 101627Z 30004KT 07/01 A3043 RMK A01 T00670012  RH  068%=      5-min Rain = 0
KMC1 101628Z 28004KT 07/01 A3043 RMK A01 T00670009  RH  066%=      5-min Rain = 0
KMC1 101629Z 29002KT 07/01 A3043 RMK A01 T00680010  RH  067%=      5-min Rain = 0
KMC1 101630Z 29003KT 07/01 A3043 RMK A01 T00690008  RH  065%=      5-min Rain = 0
KMC1 101631Z 28004KT 07/01 A3043 RMK A01 T00680008  RH  065%=      5-min Rain = 0
KMC1 101632Z 29003KT 07/01 A3043 RMK A01 T00680008  RH  066%=      5-min Rain = 0
KMC1 101633Z 27003KT 07/01 A3043 RMK A01 T00690011  RH  066%=      5-min Rain = 0
KMC1 101634Z 29004KT 07/01 A3043 RMK A01 T00690008  RH  065%=      5-min Rain = 0
KMC1 101635Z 29004KT 07/01 A3043 RMK A01 T00690009  RH  066%=      5-min Rain = 0
KMC1 101636Z 28003KT 07/01 A3043 RMK A01 T00690011  RH  066%=      5-min Rain = 0
KMC1 101637Z 26003KT 07/01 A3043 RMK A01 T00710014  RH  067%=      5-min Rain = 0
KMC1 101638Z 26002KT 07/01 A3043 RMK A01 T00720011  RH  065%=      5-min Rain = 0
KMC1 101639Z 26001KT 07/01 A3043 RMK A01 T00720012  RH  066%=      5-min Rain = 0
KMC1 101640Z 28002KT 07/01 A3043 RMK A01 T00730014  RH  066%=      5-min Rain = 0
KMC1 101641Z 26003KT 07/01 A3043 RMK A01 T00740011  RH  064%=      5-min Rain = 0
KMC1 101642Z 27002KT 07/01 A3043 RMK A01 T00740013  RH  065%=      5-min Rain = 0
KMC1 101643Z 29003KT 07/01 A3043 RMK A01 T00740012  RH  065%=      5-min Rain = 0
KMC1 101644Z 30003KT 07/01 A3043 RMK A01 T00740013  RH  065%=      5-min Rain = 0
KMC1 101645Z 28002KT 08/02 A3043 RMK A01 T00750016  RH  066%=      5-min Rain = 0
KMC1 101646Z 30002KT 08/02 A3043 RMK A01 T00770018  RH  066%=      5-min Rain = 0
KMC1 101647Z 30002KT 08/02 A3043 RMK A01 T00780017  RH  065%=      5-min Rain = 0
KMC1 101648Z 29002KT 08/02 A3043 RMK A01 T00790015  RH  064%=      5-min Rain = 0
KMC1 101649Z 27002KT 08/01 A3043 RMK A01 T00800014  RH  063%=      5-min Rain = 0
KMC1 101650Z 25002KT 08/01 A3043 RMK A01 T00800014  RH  063%=      5-min Rain = 0
KMC1 101651Z 24003KT 08/01 A3043 RMK A01 T00800014  RH  063%=      5-min Rain = 0
KMC1 101652Z 26001KT 08/01 A3043 RMK A01 T00790013  RH  063%=      5-min Rain = 0
KMC1 101653Z 28003KT 08/02 A3043 RMK A01 T00790015  RH  064%=      5-min Rain = 0
KMC1 101654Z 24001KT 08/02 A3043 RMK A01 T00810016  RH  063%=      5-min Rain = 0
KMC1 101655Z 28003KT 08/01 A3043 RMK A01 T00830012  RH  061%=      5-min Rain = 0
KMC1 101656Z 30005KT 08/01 A3043 RMK A01 T00830012  RH  061%=      5-min Rain = 0
KMC1 101657Z 29005KT 08/01 A3043 RMK A01 T00830013  RH  061%=      5-min Rain = 0
KMC1 101658Z 30003KT 08/01 A3043 RMK A01 T00830014  RH  062%=      5-min Rain = 0
KMC1 101659Z 29002KT 08/01 A3043 RMK A01 T00840011  RH  060%=      5-min Rain = 0
KMC1 101700Z 26003KT 08/01 A3043 RMK A01 T00840011  RH  060%=      5-min Rain = 0
KMC1 101701Z 26001KT 08/01 A3043 RMK A01 T00840010  RH  060%=      5-min Rain = 0
KMC1 101702Z 23002KT 09/01 A3043 RMK A01 T00850009  RH  059%=      5-min Rain = 0
KMC1 101703Z 22002KT 09/01 A3043 RMK A01 T00850009  RH  059%=      5-min Rain = 0
KMC1 101704Z 25003KT 09/01 A3043 RMK A01 T00870014  RH  060%=      5-min Rain = 0
KMC1 101705Z 28005KT 09/02 A3042 RMK A01 T00910016  RH  059%=      5-min Rain = 0
KMC1 101706Z 29005KT 09/01 A3042 RMK A01 T00930008  RH  055%=      5-min Rain = 0
KMC1 101707Z 28004KT 09/01 A3042 RMK A01 T00920008  RH  056%=      5-min Rain = 0
KMC1 101708Z 27003KT 09/00 A3042 RMK A01 T00900004  RH  055%=      5-min Rain = 0
KMC1 101709Z 26003KT 09/01 A3042 RMK A01 T00890006  RH  056%=      5-min Rain = 0
KMC1 101710Z 28006KT 09/01 A3042 RMK A01 T00890005  RH  055%=      5-min Rain = 0
KMC1 101711Z 27006KT 09/01 A3042 RMK A01 T00910009  RH  057%=      5-min Rain = 0
KMC1 101712Z 27006KT 09/01 A3042 RMK A01 T00920005  RH  055%=      5-min Rain = 0
KMC1 101713Z 27004KT 09/01 A3042 RMK A01 T00930006  RH  055%=      5-min Rain = 0
KMC1 101714Z 28003KT 09/01 A3042 RMK A01 T00930007  RH  055%=      5-min Rain = 0
KMC1 101715Z 27003KT 09/01 A3042 RMK A01 T00940008  RH  055%=      5-min Rain = 0
KMC1 101716Z 28005KT 09/01 A3042 RMK A01 T00940007  RH  054%=      5-min Rain = 0
KMC1 101717Z 30006KT 09/01 A3042 RMK A01 T00940006  RH  054%=      5-min Rain = 0
KMC1 101718Z 30004KT 09/01 A3042 RMK A01 T00940007  RH  054%=      5-min Rain = 0
KMC1 101719Z 27005KT 09/01 A3042 RMK A01 T00940008  RH  055%=      5-min Rain = 0
KMC1 101720Z 26005KT 10/01 A3042 RMK A01 T00950007  RH  054%=      5-min Rain = 0
KMC1 101721Z 26005KT 10/01 A3042 RMK A01 T00960010  RH  055%=      5-min Rain = 0
KMC1 101722Z 26006KT 10/01 A3042 RMK A01 T00980013  RH  055%=      5-min Rain = 0
KMC1 101723Z 27006KT 10/01 A3042 RMK A01 T00990011  RH  054%=      5-min Rain = 0
KMC1 101724Z 26005KT 10/01 A3042 RMK A01 T00990011  RH  054%=      5-min Rain = 0
KMC1 101725Z 27006KT 10/01 A3042 RMK A01 T00990011  RH  054%=      5-min Rain = 0
KMC1 101726Z 28006KT 10/01 A3042 RMK A01 T00990011  RH  054%=      5-min Rain = 0
KMC1 101727Z 27004KT 10/01 A3042 RMK A01 T00990012  RH  055%=      5-min Rain = 0
KMC1 101728Z 26006KT 10/01 A3041 RMK A01 T01000011  RH  054%=      5-min Rain = 0
KMC1 101729Z 28006KT 10/01 A3041 RMK A01 T01000010  RH  054%=      5-min Rain = 0
KMC1 101730Z 29007KT 10/01 A3041 RMK A01 T01000011  RH  054%=      5-min Rain = 0
KMC1 101731Z 29007KT 10/01 A3041 RMK A01 T00990013  RH  055%=      5-min Rain = 0
KMC1 101732Z 30005KT 10/01 A3041 RMK A01 T01010014  RH  055%=      5-min Rain = 0
KMC1 101733Z 29007KT 10/01 A3041 RMK A01 T01010014  RH  055%=      5-min Rain = 0
KMC1 101734Z 29006KT 10/02 A3041 RMK A01 T01030015  RH  054%=      5-min Rain = 0
KMC1 101735Z 27004KT 10/01 A3041 RMK A01 T01030014  RH  054%=      5-min Rain = 0
KMC1 101736Z 28003KT 10/01 A3041 RMK A01 T01040013  RH  054%=      5-min Rain = 0
KMC1 101737Z 29005KT 10/02 A3041 RMK A01 T01040018  RH  055%=      5-min Rain = 0
KMC1 101738Z 29007KT 11/02 A3041 RMK A01 T01060017  RH  054%=      5-min Rain = 0
KMC1 101739Z 28007KT 11/02 A3041 RMK A01 T01060015  RH  053%=      5-min Rain = 0
KMC1 101740Z 27004KT 11/01 A3041 RMK A01 T01050012  RH  053%=      5-min Rain = 0
KMC1 101741Z 25005KT 11/01 A3041 RMK A01 T01050014  RH  053%=      5-min Rain = 0
KMC1 101742Z 24005KT 11/01 A3041 RMK A01 T01050014  RH  053%=      5-min Rain = 0
KMC1 101743Z 24006KT 11/01 A3041 RMK A01 T01050013  RH  053%=      5-min Rain = 0
KMC1 101744Z 24004KT 11/01 A3041 RMK A01 T01050013  RH  053%=      5-min Rain = 0
KMC1 101745Z 25005G10KT 11/02 A3041 RMK A01 T01060017  RH  054%=      5-min Rain = 0
KMC1 101746Z 28008KT 11/02 A3041 RMK A01 T01080016  RH  053%=      5-min Rain = 0
KMC1 101747Z 28006KT 11/01 A3041 RMK A01 T01080014  RH  052%=      5-min Rain = 0
KMC1 101748Z 27003KT 11/01 A304 RMK A01 T01070013  RH  052%=      5-min Rain = 0
KMC1 101749Z 28004KT 11/02 A304 RMK A01 T01070015  RH  053%=      5-min Rain = 0
KMC1 101750Z 29004KT 11/01 A304 RMK A01 T01080012  RH  052%=      5-min Rain = 0
KMC1 101751Z 29004KT 11/01 A304 RMK A01 T01080014  RH  052%=      5-min Rain = 0
KMC1 101752Z 29004KT 11/02 A304 RMK A01 T01080015  RH  053%=      5-min Rain = 0
KMC1 101753Z 31005KT 11/01 A304 RMK A01 T01080014  RH  052%=      5-min Rain = 0
KMC1 101754Z 31004KT 11/01 A304 RMK A01 T01080014  RH  053%=      5-min Rain = 0
KMC1 101755Z 31004KT 11/01 A304 RMK A01 T01070013  RH  052%=      5-min Rain = 0
KMC1 101756Z 29006KT 11/02 A304 RMK A01 T01070016  RH  053%=      5-min Rain = 0
KMC1 101757Z 28006KT 11/02 A304 RMK A01 T01080017  RH  053%=      5-min Rain = 0
KMC1 101758Z 27006KT 11/02 A3039 RMK A01 T01090016  RH  052%=      5-min Rain = 0
KMC1 101759Z 27005KT 11/01 A3039 RMK A01 T01100013  RH  051%=      5-min Rain = 0
KMC1 101800Z 25006KT 11/01 A3039 RMK A01 T01090012  RH  051%=      5-min Rain = 0
KMC1 101801Z 22001KT 11/01 A3039 RMK A01 T01090011  RH  051%=      5-min Rain = 0
KMC1 101802Z 22001KT 11/02 A3039 RMK A01 T01100015  RH  052%=      5-min Rain = 0
KMC1 101803Z 28004KT 11/02 A3039 RMK A01 T01130016  RH  051%=      5-min Rain = 0
KMC1 101804Z 25006KT 11/02 A3039 RMK A01 T01140016  RH  051%=      5-min Rain = 0
KMC1 101805Z 26007KT 12/02 A3039 RMK A01 T01150015  RH  050%=      5-min Rain = 0
KMC1 101806Z 25006KT 12/01 A3039 RMK A01 T01150014  RH  050%=      5-min Rain = 0
KMC1 101807Z 26005KT 11/01 A3039 RMK A01 T01130013  RH  050%=      5-min Rain = 0
KMC1 101808Z 25003KT 11/01 A3039 RMK A01 T01110013  RH  051%=      5-min Rain = 0
KMC1 101809Z 24004KT 11/01 A3039 RMK A01 T01110014  RH  051%=      5-min Rain = 0
KMC1 101810Z 23005KT 11/01 A3038 RMK A01 T01110013  RH  051%=      5-min Rain = 0
KMC1 101811Z 24004KT 11/01 A3038 RMK A01 T01120014  RH  051%=      5-min Rain = 0
KMC1 101812Z 22003KT 11/01 A3038 RMK A01 T01120013  RH  051%=      5-min Rain = 0
KMC1 101813Z 25004KT 11/02 A3038 RMK A01 T01130018  RH  052%=      5-min Rain = 0
KMC1 101814Z 24005KT 12/02 A3038 RMK A01 T01150020  RH  052%=      5-min Rain = 0
KMC1 101815Z 27003KT 12/02 A3038 RMK A01 T01150015  RH  050%=      5-min Rain = 0
KMC1 101816Z 25002KT 11/02 A3038 RMK A01 T01140015  RH  051%=      5-min Rain = 0
KMC1 101817Z 22001KT 12/02 A3038 RMK A01 T01150017  RH  051%=      5-min Rain = 0
KMC1 101818Z 21003G8KT 12/01 A3038 RMK A01 T01160013  RH  049%=      5-min Rain = 0
KMC1 101819Z 22007KT 12/02 A3038 RMK A01 T01160015  RH  050%=      5-min Rain = 0
KMC1 101820Z 26007KT 12/02 A3038 RMK A01 T01170018  RH  051%=      5-min Rain = 0
KMC1 101821Z 28005KT 12/02 A3038 RMK A01 T01170019  RH  051%=      5-min Rain = 0
KMC1 101822Z 29004KT 12/02 A3038 RMK A01 T01170016  RH  050%=      5-min Rain = 0
KMC1 101823Z 28004KT 12/02 A3038 RMK A01 T01150015  RH  050%=      5-min Rain = 0
KMC1 101824Z 28004KT 12/02 A3038 RMK A01 T01150017  RH  051%=      5-min Rain = 0
KMC1 101825Z 24002KT 12/02 A3038 RMK A01 T01170021  RH  052%=      5-min Rain = 0
KMC1 101826Z 30003KT 12/02 A3038 RMK A01 T01190016  RH  049%=      5-min Rain = 0
KMC1 101827Z 29006KT 12/02 A3038 RMK A01 T01200020  RH  050%=      5-min Rain = 0
KMC1 101828Z 27008KT 12/02 A3038 RMK A01 T01210016  RH  048%=      5-min Rain = 0
KMC1 101829Z 24007KT 12/02 A3038 RMK A01 T01200017  RH  049%=      5-min Rain = 0
KMC1 101830Z 25008KT 12/02 A3038 RMK A01 T01190015  RH  049%=      5-min Rain = 0
KMC1 101831Z 25005KT 12/02 A3038 RMK A01 T01190015  RH  049%=      5-min Rain = 0
KMC1 101832Z 25004KT 12/01 A3038 RMK A01 T01190014  RH  049%=      5-min Rain = 0
KMC1 101833Z 25004KT 12/02 A3037 RMK A01 T01180015  RH  049%=      5-min Rain = 0
KMC1 101834Z 23001G6KT 12/02 A3037 RMK A01 T01190016  RH  049%=      5-min Rain = 0
KMC1 101835Z 23007KT 12/02 A3037 RMK A01 T01190015  RH  049%=      5-min Rain = 0
KMC1 101836Z 23005KT 12/01 A3037 RMK A01 T01200014  RH  048%=      5-min Rain = 0
KMC1 101837Z 19003KT 12/01 A3037 RMK A01 T01200012  RH  047%=      5-min Rain = 0
KMC1 101838Z 26006KT 12/01 A3037 RMK A01 T01220012  RH  047%=      5-min Rain = 0
KMC1 101839Z 26005KT 12/01 A3037 RMK A01 T01220010  RH  046%=      5-min Rain = 0
KMC1 101840Z 25004KT 12/01 A3037 RMK A01 T01230013  RH  047%=      5-min Rain = 0
KMC1 101841Z 27005KT 13/01 A3037 RMK A01 T01250014  RH  047%=      5-min Rain = 0
KMC1 101842Z 28005KT 13/01 A3037 RMK A01 T01260010  RH  045%=      5-min Rain = 0
KMC1 101843Z 28007KT 13/01 A3037 RMK A01 T01250014  RH  047%=      5-min Rain = 0
KMC1 101844Z 28007KT 13/02 A3037 RMK A01 T01250017  RH  048%=      5-min Rain = 0
KMC1 101845Z 29007KT 12/01 A3037 RMK A01 T01240014  RH  047%=      5-min Rain = 0
KMC1 101846Z 28007KT 12/01 A3037 RMK A01 T01220014  RH  048%=      5-min Rain = 0
KMC1 101847Z 27006KT 12/02 A3037 RMK A01 T01210016  RH  048%=      5-min Rain = 0
KMC1 101848Z 28005KT 12/01 A3037 RMK A01 T01210013  RH  048%=      5-min Rain = 0
KMC1 101849Z 29003KT 12/01 A3037 RMK A01 T01210013  RH  047%=      5-min Rain = 0
KMC1 101850Z 29003KT 12/01 A3037 RMK A01 T01200012  RH  048%=      5-min Rain = 0
KMC1 101851Z 27007KT 12/02 A3036 RMK A01 T01220019  RH  049%=      5-min Rain = 0
KMC1 101852Z 26005KT 13/02 A3037 RMK A01 T01250016  RH  048%=      5-min Rain = 0
KMC1 101853Z 26003KT 13/01 A3037 RMK A01 T01250014  RH  046%=      5-min Rain = 0
KMC1 101854Z 25003KT 13/01 A3036 RMK A01 T01250014  RH  047%=      5-min Rain = 0
KMC1 101855Z 24006KT 13/02 A3036 RMK A01 T01270016  RH  047%=      5-min Rain = 0
KMC1 101856Z 23004KT 13/01 A3036 RMK A01 T01270011  RH  045%=      5-min Rain = 0
KMC1 101857Z 23004KT 13/01 A3036 RMK A01 T01260014  RH  046%=      5-min Rain = 0
KMC1 101858Z 25005KT 13/01 A3036 RMK A01 T01260013  RH  046%=      5-min Rain = 0
KMC1 101859Z 25006KT 13/02 A3036 RMK A01 T01280016  RH  047%=      5-min Rain = 0
KMC1 101900Z 26005KT 13/01 A3036 RMK A01 T01290014  RH  046%=      5-min Rain = 0
KMC1 101901Z 29005KT 13/01 A3036 RMK A01 T01290010  RH  044%=      5-min Rain = 0
KMC1 101902Z 28005KT 13/01 A3036 RMK A01 T01280012  RH  045%=      5-min Rain = 0
KMC1 101903Z 26007KT 13/01 A3036 RMK A01 T01270013  RH  046%=      5-min Rain = 0
KMC1 101904Z 26008KT 13/02 A3036 RMK A01 T01270015  RH  046%=      5-min Rain = 0
KMC1 101905Z 27007KT 13/01 A3036 RMK A01 T01270013  RH  046%=      5-min Rain = 0
KMC1 101906Z 25005KT 13/02 A3036 RMK A01 T01270016  RH  047%=      5-min Rain = 0
KMC1 101907Z 27004KT 13/02 A3036 RMK A01 T01280015  RH  046%=      5-min Rain = 0
KMC1 101908Z 28004KT 13/01 A3036 RMK A01 T01280013  RH  046%=      5-min Rain = 0
KMC1 101909Z 24005KT 13/01 A3036 RMK A01 T01280014  RH  046%=      5-min Rain = 0
KMC1 101910Z 23003KT 13/01 A3036 RMK A01 T01270011  RH  045%=      5-min Rain = 0
KMC1 101911Z 24003KT 13/01 A3036 RMK A01 T01270014  RH  046%=      5-min Rain = 0
KMC1 101912Z 25004KT 13/01 A3035 RMK A01 T01270014  RH  046%=      5-min Rain = 0
KMC1 101913Z 29005KT 13/02 A3035 RMK A01 T01270016  RH  047%=      5-min Rain = 0
KMC1 101914Z 28007KT 13/02 A3035 RMK A01 T01300019  RH  047%=      5-min Rain = 0
KMC1 101915Z 29006KT 13/02 A3035 RMK A01 T01310020  RH  047%=      5-min Rain = 0
KMC1 101916Z 27006KT 13/02 A3035 RMK A01 T01320018  RH  046%=      5-min Rain = 0
KMC1 101917Z 26005KT 13/02 A3035 RMK A01 T01320016  RH  045%=      5-min Rain = 0
KMC1 101918Z 25003KT 13/01 A3035 RMK A01 T01300014  RH  045%=      5-min Rain = 0
KMC1 101919Z 21002KT 13/01 A3035 RMK A01 T01300014  RH  045%=      5-min Rain = 0
KMC1 101920Z 25002KT 13/02 A3035 RMK A01 T01300015  RH  046%=      5-min Rain = 0
KMC1 101921Z 27003KT 13/02 A3035 RMK A01 T01310019  RH  047%=      5-min Rain = 0
KMC1 101922Z 29005KT 13/02 A3035 RMK A01 T01330016  RH  045%=      5-min Rain = 0
KMC1 101923Z 28002KT 13/01 A3035 RMK A01 T01320013  RH  044%=      5-min Rain = 0
KMC1 101924Z 25001KT 13/01 A3035 RMK A01 T01300014  RH  045%=      5-min Rain = 0
KMC1 101925Z 27002KT 13/01 A3035 RMK A01 T01300014  RH  045%=      5-min Rain = 0
KMC1 101926Z 28005KT 13/02 A3035 RMK A01 T01300015  RH  046%=      5-min Rain = 0
KMC1 101927Z 26008KT 13/02 A3035 RMK A01 T01310019  RH  046%=      5-min Rain = 0
KMC1 101928Z 27005KT 13/02 A3035 RMK A01 T01320015  RH  045%=      5-min Rain = 0
KMC1 101929Z 28004KT 13/02 A3035 RMK A01 T01300017  RH  046%=      5-min Rain = 0
KMC1 101930Z 27002KT 13/02 A3035 RMK A01 T01320019  RH  046%=      5-min Rain = 0
KMC1 101931Z 28003KT 13/01 A3035 RMK A01 T01330014  RH  044%=      5-min Rain = 0
KMC1 101932Z 27002KT 13/02 A3035 RMK A01 T01310015  RH  045%=      5-min Rain = 0
KMC1 101933Z 27002KT 13/02 A3035 RMK A01 T01310016  RH  046%=      5-min Rain = 0
KMC1 101934Z 30005KT 13/02 A3034 RMK A01 T01320017  RH  046%=      5-min Rain = 0
KMC1 101935Z 30006KT 13/02 A3034 RMK A01 T01340022  RH  047%=      5-min Rain = 0
KMC1 101936Z 30005KT 14/02 A3034 RMK A01 T01360019  RH  045%=      5-min Rain = 0
KMC1 101937Z 31002KT 14/02 A3034 RMK A01 T01350018  RH  045%=      5-min Rain = 0
KMC1 101938Z 31002KT 14/02 A3034 RMK A01 T01350016  RH  044%=      5-min Rain = 0
KMC1 101939Z 31005KT 13/02 A3034 RMK A01 T01340017  RH  045%=      5-min Rain = 0
KMC1 101940Z 31003KT 13/01 A3034 RMK A01 T01330014  RH  044%=      5-min Rain = 0
KMC1 101941Z 26003KT 13/02 A3034 RMK A01 T01320016  RH  045%=      5-min Rain = 0
KMC1 101942Z 19003KT 13/02 A3034 RMK A01 T01330019  RH  046%=      5-min Rain = 0
KMC1 101943Z 25005KT 14/02 A3034 RMK A01 T01350020  RH  045%=      5-min Rain = 0
KMC1 101944Z 27004KT 14/02 A3034 RMK A01 T01360016  RH  044%=      5-min Rain = 0
KMC1 101945Z 23001KT 14/02 A3034 RMK A01 T01360015  RH  044%=      5-min Rain = 0
KMC1 101946Z 21005KT 14/02 A3034 RMK A01 T01360015  RH  044%=      5-min Rain = 0
KMC1 101947Z 20005KT 14/02 A3034 RMK A01 T01370017  RH  044%=      5-min Rain = 0
KMC1 101948Z 21004KT 14/02 A3034 RMK A01 T01380016  RH  044%=      5-min Rain = 0
KMC1 101949Z 27004KT 14/02 A3034 RMK A01 T01380017  RH  044%=      5-min Rain = 0
KMC1 101950Z 29008KT 14/02 A3034 RMK A01 T01380018  RH  044%=      5-min Rain = 0
KMC1 101951Z 28006KT 14/02 A3033 RMK A01 T01390018  RH  044%=      5-min Rain = 0
KMC1 101952Z 27006KT 14/02 A3033 RMK A01 T01380018  RH  044%=      5-min Rain = 0
KMC1 101953Z 28005KT 14/02 A3033 RMK A01 T01380018  RH  044%=      5-min Rain = 0
KMC1 101954Z 27004KT 14/02 A3033 RMK A01 T01380021  RH  045%=      5-min Rain = 0
KMC1 101955Z 27003KT 14/02 A3033 RMK A01 T01400017  RH  043%=      5-min Rain = 0
KMC1 101956Z 26005KT 14/02 A3033 RMK A01 T01400017  RH  043%=      5-min Rain = 0
KMC1 101957Z 26005KT 14/02 A3033 RMK A01 T01400018  RH  044%=      5-min Rain = 0
KMC1 101958Z 27005KT 14/02 A3033 RMK A01 T01400015  RH  043%=      5-min Rain = 0
KMC1 101959Z 24004KT 14/02 A3033 RMK A01 T01390018  RH  044%=      5-min Rain = 0
KMC1 102000Z 22003KT 14/02 A3033 RMK A01 T01400017  RH  043%=      5-min Rain = 0
KMC1 102001Z 22004KT 14/02 A3033 RMK A01 T01410021  RH  044%=      5-min Rain = 0
KMC1 102002Z 23005KT 14/02 A3033 RMK A01 T01440024  RH  044%=      5-min Rain = 0
KMC1 102003Z 27006KT 15/02 A3033 RMK A01 T01450020  RH  043%=      5-min Rain = 0
KMC1 102004Z 27007KT 14/02 A3033 RMK A01 T01440019  RH  043%=      5-min Rain = 0
KMC1 102005Z 28007KT 14/02 A3033 RMK A01 T01420016  RH  043%=      5-min Rain = 0
KMC1 102006Z 26006KT 14/02 A3033 RMK A01 T01410015  RH  042%=      5-min Rain = 0
KMC1 102007Z 27005KT 14/01 A3033 RMK A01 T01390012  RH  042%=      5-min Rain = 0
KMC1 102008Z 29003KT 14/01 A3033 RMK A01 T01380012  RH  042%=      5-min Rain = 0
KMC1 102009Z 27001KT 14/01 A3033 RMK A01 T01380011  RH  042%=      5-min Rain = 0
KMC1 102010Z 25003KT 14/01 A3033 RMK A01 T01390014  RH  043%=      5-min Rain = 0
KMC1 102011Z 31003KT 14/01 A3033 RMK A01 T01410014  RH  042%=      5-min Rain = 0
KMC1 102012Z 33005KT 14/02 A3033 RMK A01 T01420015  RH  042%=      5-min Rain = 0
KMC1 102013Z 33005KT 14/01 A3033 RMK A01 T01410011  RH  041%=      5-min Rain = 0
KMC1 102014Z 28005KT 14/02 A3033 RMK A01 T01390015  RH  043%=      5-min Rain = 0
KMC1 102015Z 28005KT 14/02 A3033 RMK A01 T01390015  RH  043%=      5-min Rain = 0
KMC1 102016Z 29007KT 14/02 A3033 RMK A01 T01390018  RH  044%=      5-min Rain = 0
KMC1 102017Z 28006KT 14/01 A3033 RMK A01 T01400014  RH  042%=      5-min Rain = 0
KMC1 102018Z 29006KT 14/02 A3033 RMK A01 T01400017  RH  043%=      5-min Rain = 0
KMC1 102019Z 29007KT 14/02 A3033 RMK A01 T01410019  RH  044%=      5-min Rain = 0
KMC1 102020Z 29005KT 14/02 A3033 RMK A01 T01430017  RH  042%=      5-min Rain = 0
KMC1 102021Z 28005KT 14/01 A3033 RMK A01 T01420014  RH  042%=      5-min Rain = 0
KMC1 102022Z 30004KT 14/01 A3033 RMK A01 T01400012  RH  042%=      5-min Rain = 0
KMC1 102023Z 26002KT 14/01 A3033 RMK A01 T01380011  RH  042%=      5-min Rain = 0
KMC1 102024Z 27003KT 14/02 A3033 RMK A01 T01380015  RH  043%=      5-min Rain = 0
KMC1 102025Z 31004KT 14/01 A3033 RMK A01 T01390014  RH  043%=      5-min Rain = 0
KMC1 102026Z 31003KT 14/01 A3033 RMK A01 T01400012  RH  042%=      5-min Rain = 0
KMC1 102027Z 29006KT 14/02 A3033 RMK A01 T01390016  RH  043%=      5-min Rain = 0
KMC1 102028Z 28004KT 14/02 A3033 RMK A01 T01410021  RH  044%=      5-min Rain = 0
KMC1 102029Z 26004KT 14/02 A3033 RMK A01 T01440018  RH  042%=      5-min Rain = 0
KMC1 102030Z 23003KT 14/01 A3033 RMK A01 T01440014  RH  041%=      5-min Rain = 0
KMC1 102031Z 25005KT 14/01 A3032 RMK A01 T01420014  RH  042%=      5-min Rain = 0
KMC1 102032Z 26004KT 14/02 A3032 RMK A01 T01420016  RH  042%=      5-min Rain = 0
KMC1 102033Z 26005KT 14/02 A3032 RMK A01 T01430018  RH  043%=      5-min Rain = 0
KMC1 102034Z 27003KT 14/02 A3032 RMK A01 T01430018  RH  043%=      5-min Rain = 0
KMC1 102035Z 29005KT 14/02 A3032 RMK A01 T01430020  RH  043%=      5-min Rain = 0
KMC1 102036Z 27005KT 15/02 A3032 RMK A01 T01450017  RH  042%=      5-min Rain = 0
KMC1 102037Z 29003KT 15/02 A3032 RMK A01 T01450017  RH  042%=      5-min Rain = 0
KMC1 102038Z 29004KT 15/02 A3032 RMK A01 T01450020  RH  043%=      5-min Rain = 0
KMC1 102039Z 29003KT 15/02 A3032 RMK A01 T01470018  RH  042%=      5-min Rain = 0
KMC1 102040Z 25002KT 15/02 A3032 RMK A01 T01470016  RH  041%=      5-min Rain = 0
KMC1 102041Z 29005KT 15/02 A3032 RMK A01 T01470017  RH  041%=      5-min Rain = 0
KMC1 102042Z 29005KT 15/02 A3032 RMK A01 T01470019  RH  042%=      5-min Rain = 0
KMC1 102043Z 31006KT 15/02 A3032 RMK A01 T01470017  RH  041%=      5-min Rain = 0
KMC1 102044Z 33004KT 15/02 A3032 RMK A01 T01460017  RH  042%=      5-min Rain = 0
KMC1 102045Z 29006G11KT 15/02 A3032 RMK A01 T01450017  RH  042%=      5-min Rain = 0
KMC1 102046Z 29006KT 14/02 A3032 RMK A01 T01430016  RH  042%=      5-min Rain = 0
KMC1 102047Z 28005KT 14/02 A3032 RMK A01 T01420016  RH  042%=      5-min Rain = 0
KMC1 102048Z 29004KT 14/02 A3032 RMK A01 T01420016  RH  042%=      5-min Rain = 0
KMC1 102049Z 31005KT 14/02 A3032 RMK A01 T01420018  RH  043%=      5-min Rain = 0
KMC1 102050Z 31003KT 14/01 A3032 RMK A01 T01420013  RH  042%=      5-min Rain = 0
KMC1 102051Z 34004KT 14/01 A3032 RMK A01 T01420014  RH  042%=      5-min Rain = 0
KMC1 102052Z 36004KT 14/02 A3032 RMK A01 T01410016  RH  043%=      5-min Rain = 0
KMC1 102053Z 34003KT 14/01 A3032 RMK A01 T01410014  RH  042%=      5-min Rain = 0
KMC1 102054Z 30002KT 14/01 A3032 RMK A01 T01410014  RH  042%=      5-min Rain = 0
KMC1 102055Z 29006KT 14/02 A3032 RMK A01 T01410016  RH  043%=      5-min Rain = 0
KMC1 102056Z 30007KT 14/02 A3032 RMK A01 T01430019  RH  043%=      5-min Rain = 0
KMC1 102057Z 30006KT 14/02 A3032 RMK A01 T01440018  RH  042%=      5-min Rain = 0
KMC1 102058Z 29005KT 15/02 A3032 RMK A01 T01450018  RH  042%=      5-min Rain = 0
KMC1 102059Z 29004KT 15/02 A3032 RMK A01 T01450019  RH  043%=      5-min Rain = 0
KMC1 102100Z 27004KT 15/02 A3032 RMK A01 T01460018  RH  042%=      5-min Rain = 0
KMC1 102101Z 27005KT 15/02 A3032 RMK A01 T01460019  RH  042%=      5-min Rain = 0
KMC1 102102Z 27005KT 15/02 A3032 RMK A01 T01470020  RH  042%=      5-min Rain = 0
KMC1 102103Z 27004KT 15/02 A3032 RMK A01 T01470019  RH  042%=      5-min Rain = 0
KMC1 102104Z 26005KT 15/02 A3032 RMK A01 T01460019  RH  042%=      5-min Rain = 0
KMC1 102105Z 23005KT 15/02 A3032 RMK A01 T01460018  RH  042%=      5-min Rain = 0
KMC1 102106Z 24004KT 15/01 A3032 RMK A01 T01450014  RH  041%=      5-min Rain = 0
KMC1 102107Z 27003KT 15/02 A3032 RMK A01 T01450015  RH  041%=      5-min Rain = 0
KMC1 102108Z 29003KT 14/02 A3032 RMK A01 T01440019  RH  043%=      5-min Rain = 0
KMC1 102109Z 26004KT 15/02 A3031 RMK A01 T01460021  RH  043%=      5-min Rain = 0
KMC1 102110Z 23005KT 15/02 A3031 RMK A01 T01470020  RH  042%=      5-min Rain = 0
KMC1 102111Z 23004KT 15/02 A3031 RMK A01 T01470017  RH  041%=      5-min Rain = 0
KMC1 102112Z 23004KT 15/02 A3031 RMK A01 T01460017  RH  041%=      5-min Rain = 0
KMC1 102113Z 22004KT 15/02 A3031 RMK A01 T01460017  RH  042%=      5-min Rain = 0
KMC1 102114Z 21003KT 15/01 A3031 RMK A01 T01450014  RH  041%=      5-min Rain = 0
KMC1 102115Z 22002KT 14/02 A3031 RMK A01 T01440017  RH  042%=      5-min Rain = 0
KMC1 102116Z 27003KT 15/02 A3032 RMK A01 T01450017  RH  042%=      5-min Rain = 0
KMC1 102117Z 28002KT 15/02 A3032 RMK A01 T01450017  RH  042%=      5-min Rain = 0
KMC1 102118Z 24002KT 15/02 A3032 RMK A01 T01450016  RH  042%=      5-min Rain = 0
KMC1 102119Z 25004KT 15/02 A3032 RMK A01 T01460018  RH  042%=      5-min Rain = 0
KMC1 102120Z 26005KT 15/02 A3032 RMK A01 T01470020  RH  042%=      5-min Rain = 0
KMC1 102121Z 26005KT 15/02 A3032 RMK A01 T01480019  RH  042%=      5-min Rain = 0
KMC1 102122Z 26004KT 15/02 A3032 RMK A01 T01470019  RH  042%=      5-min Rain = 0
KMC1 102123Z 28006KT 15/02 A3032 RMK A01 T01480021  RH  042%=      5-min Rain = 0
KMC1 102124Z 30004KT 15/02 A3032 RMK A01 T01480020  RH  042%=      5-min Rain = 0
KMC1 102125Z 30005KT 15/02 A3032 RMK A01 T01470021  RH  043%=      5-min Rain = 0
KMC1 102126Z 30003KT 15/02 A3032 RMK A01 T01470020  RH  042%=      5-min Rain = 0
KMC1 102127Z 29003KT 15/02 A3032 RMK A01 T01470019  RH  042%=      5-min Rain = 0
KMC1 102128Z 30005KT 15/02 A3032 RMK A01 T01480022  RH  042%=      5-min Rain = 0
KMC1 102129Z 30007KT 15/02 A3032 RMK A01 T01490023  RH  043%=      5-min Rain = 0
KMC1 102130Z 29005KT 15/02 A3032 RMK A01 T01490018  RH  041%=      5-min Rain = 0
KMC1 102131Z 29003KT 15/02 A3032 RMK A01 T01470019  RH  042%=      5-min Rain = 0
KMC1 102132Z 32004KT 15/02 A3032 RMK A01 T01460020  RH  042%=      5-min Rain = 0
KMC1 102133Z 31005KT 15/02 A3032 RMK A01 T01460020  RH  042%=      5-min Rain = 0
KMC1 102134Z 33003KT 15/02 A3032 RMK A01 T01460017  RH  042%=      5-min Rain = 0
KMC1 102135Z 34003KT 14/02 A3032 RMK A01 T01440016  RH  042%=      5-min Rain = 0
KMC1 102136Z 33003KT 14/02 A3032 RMK A01 T01440019  RH  043%=      5-min Rain = 0
KMC1 102137Z 33003KT 14/02 A3032 RMK A01 T01440016  RH  042%=      5-min Rain = 0
KMC1 102138Z 32002KT 14/02 A3032 RMK A01 T01430019  RH  043%=      5-min Rain = 0
KMC1 102139Z 27002KT 14/02 A3032 RMK A01 T01430017  RH  042%=      5-min Rain = 0
KMC1 102140Z 29002KT 14/02 A3032 RMK A01 T01440018  RH  042%=      5-min Rain = 0
KMC1 102141Z 30004KT 15/02 A3032 RMK A01 T01450018  RH  042%=      5-min Rain = 0
KMC1 102142Z 29005KT 15/02 A3032 RMK A01 T01450018  RH  042%=      5-min Rain = 0
KMC1 102143Z 29004KT 15/02 A3032 RMK A01 T01450016  RH  042%=      5-min Rain = 0
KMC1 102144Z 29004KT 15/02 A3032 RMK A01 T01450020  RH  043%=      5-min Rain = 0
KMC1 102145Z 29005KT 15/02 A3032 RMK A01 T01450019  RH  042%=      5-min Rain = 0
KMC1 102146Z 29006KT 15/02 A3032 RMK A01 T01470019  RH  042%=      5-min Rain = 0
KMC1 102147Z 29005KT 15/02 A3032 RMK A01 T01470019  RH  042%=      5-min Rain = 0
KMC1 102148Z 29005KT 15/02 A3032 RMK A01 T01470016  RH  041%=      5-min Rain = 0
KMC1 102149Z 29005KT 15/02 A3032 RMK A01 T01470017  RH  041%=      5-min Rain = 0
KMC1 102150Z 30005KT 15/02 A3032 RMK A01 T01470017  RH  041%=      5-min Rain = 0
KMC1 102151Z 29006KT 15/02 A3032 RMK A01 T01460020  RH  042%=      5-min Rain = 0
KMC1 102152Z 29003KT 15/02 A3032 RMK A01 T01460018  RH  042%=      5-min Rain = 0
KMC1 102153Z 30005KT 15/02 A3032 RMK A01 T01460018  RH  042%=      5-min Rain = 0
KMC1 102154Z 31004KT 15/02 A3032 RMK A01 T01450019  RH  042%=      5-min Rain = 0
KMC1 102155Z 32004KT 15/02 A3032 RMK A01 T01450017  RH  042%=      5-min Rain = 0
KMC1 102156Z 32003KT 15/02 A3032 RMK A01 T01450017  RH  042%=      5-min Rain = 0
KMC1 102157Z 28002KT 15/02 A3032 RMK A01 T01450018  RH  042%=      5-min Rain = 0
KMC1 102158Z 29002KT 14/02 A3032 RMK A01 T01440017  RH  042%=      5-min Rain = 0
KMC1 102159Z 31003KT 14/02 A3032 RMK A01 T01440019  RH  043%=      5-min Rain = 0
KMC1 102200Z 31004KT 14/02 A3032 RMK A01 T01440020  RH  043%=      5-min Rain = 0
KMC1 102201Z 30004KT 14/02 A3032 RMK A01 T01440022  RH  043%=      5-min Rain = 0
KMC1 102202Z 29004KT 15/02 A3032 RMK A01 T01450020  RH  043%=      5-min Rain = 0
KMC1 102203Z 28005KT 14/02 A3032 RMK A01 T01440018  RH  042%=      5-min Rain = 0
KMC1 102204Z 29003KT 14/02 A3032 RMK A01 T01430017  RH  042%=      5-min Rain = 0
KMC1 102205Z 32003KT 14/02 A3032 RMK A01 T01430020  RH  043%=      5-min Rain = 0
KMC1 102206Z 30001KT 14/02 A3032 RMK A01 T01430019  RH  043%=      5-min Rain = 0
KMC1 102207Z 28001KT 14/02 A3032 RMK A01 T01440017  RH  042%=      5-min Rain = 0
KMC1 102208Z 28000KT 15/02 A3032 RMK A01 T01450018  RH  042%=      5-min Rain = 0
KMC1 102209Z 23000KT 15/02 A3032 RMK A01 T01460018  RH  042%=      5-min Rain = 0
KMC1 102210Z 04000KT 15/02 A3032 RMK A01 T01470019  RH  042%=      5-min Rain = 0
KMC1 102211Z 03002KT 15/02 A3032 RMK A01 T01480020  RH  042%=      5-min Rain = 0
KMC1 102212Z 04001KT 15/02 A3032 RMK A01 T01480023  RH  043%=      5-min Rain = 0
KMC1 102213Z 32001KT 15/02 A3032 RMK A01 T01470020  RH  042%=      5-min Rain = 0
KMC1 102214Z 27000KT 15/02 A3032 RMK A01 T01460019  RH  042%=      5-min Rain = 0
KMC1 102215Z 32001KT 15/02 A3032 RMK A01 T01470020  RH  042%=      5-min Rain = 0
KMC1 102216Z 34001KT 15/02 A3032 RMK A01 T01470020  RH  042%=      5-min Rain = 0
KMC1 102217Z 35001KT 15/02 A3032 RMK A01 T01470020  RH  042%=      5-min Rain = 0
KMC1 102218Z 34001KT 15/02 A3032 RMK A01 T01460019  RH  042%=      5-min Rain = 0
KMC1 102219Z 32001KT 15/02 A3032 RMK A01 T01450019  RH  042%=      5-min Rain = 0
KMC1 102220Z 27002KT 14/02 A3032 RMK A01 T01440020  RH  043%=      5-min Rain = 0
KMC1 102221Z 27003KT 15/02 A3032 RMK A01 T01450020  RH  043%=      5-min Rain = 0
KMC1 102222Z 27002KT 15/02 A3032 RMK A01 T01460018  RH  042%=      5-min Rain = 0
KMC1 102223Z 26001KT 15/02 A3032 RMK A01 T01460018  RH  042%=      5-min Rain = 0
KMC1 102224Z 25001KT 15/02 A3032 RMK A01 T01460018  RH  042%=      5-min Rain = 0
KMC1 102225Z 23001KT 15/02 A3032 RMK A01 T01470017  RH  041%=      5-min Rain = 0
KMC1 102226Z 23002KT 15/02 A3032 RMK A01 T01480017  RH  041%=      5-min Rain = 0
KMC1 102227Z 29002KT 15/02 A3032 RMK A01 T01490018  RH  041%=      5-min Rain = 0
KMC1 102228Z 27002KT 15/02 A3032 RMK A01 T01490020  RH  042%=      5-min Rain = 0
KMC1 102229Z 28004KT 15/02 A3032 RMK A01 T01490020  RH  042%=      5-min Rain = 0
KMC1 102230Z 29004KT 15/02 A3032 RMK A01 T01480016  RH  041%=      5-min Rain = 0
KMC1 102231Z 29004KT 15/02 A3032 RMK A01 T01460018  RH  042%=      5-min Rain = 0
KMC1 102232Z 28003KT 15/02 A3032 RMK A01 T01460019  RH  042%=      5-min Rain = 0
KMC1 102233Z 28002KT 15/02 A3032 RMK A01 T01450017  RH  042%=      5-min Rain = 0
KMC1 102234Z 29004KT 15/02 A3032 RMK A01 T01450019  RH  042%=      5-min Rain = 0
KMC1 102235Z 29004KT 15/02 A3032 RMK A01 T01450022  RH  043%=      5-min Rain = 0
KMC1 102236Z 27003KT 15/02 A3032 RMK A01 T01450022  RH  043%=      5-min Rain = 0
KMC1 102237Z 27003KT 15/02 A3032 RMK A01 T01450021  RH  043%=      5-min Rain = 0
KMC1 102238Z 27003KT 15/02 A3032 RMK A01 T01450021  RH  043%=      5-min Rain = 0
KMC1 102239Z 27002KT 15/02 A3032 RMK A01 T01460021  RH  043%=      5-min Rain = 0
KMC1 102240Z 27001KT 15/02 A3032 RMK A01 T01460021  RH  043%=      5-min Rain = 0
KMC1 102241Z 29002KT 15/02 A3032 RMK A01 T01470022  RH  043%=      5-min Rain = 0
KMC1 102242Z 28002KT 15/02 A3032 RMK A01 T01480023  RH  043%=      5-min Rain = 0
KMC1 102243Z 29002KT 15/02 A3032 RMK A01 T01480021  RH  042%=      5-min Rain = 0
KMC1 102244Z 29001KT 15/02 A3032 RMK A01 T01470019  RH  042%=      5-min Rain = 0
KMC1 102245Z 30000KT 15/02 A3033 RMK A01 T01470018  RH  042%=      5-min Rain = 0
KMC1 102246Z 30002KT 15/02 A3033 RMK A01 T01470019  RH  042%=      5-min Rain = 0
KMC1 102247Z 30000KT 15/02 A3033 RMK A01 T01470019  RH  042%=      5-min Rain = 0
KMC1 102248Z 00000KT 15/02 A3033 RMK A01 T01470019  RH  042%=      5-min Rain = 0
KMC1 102249Z 35000KT 15/02 A3033 RMK A01 T01470019  RH  042%=      5-min Rain = 0
KMC1 102250Z 35001KT 15/02 A3033 RMK A01 T01480020  RH  042%=      5-min Rain = 0
KMC1 102251Z 33001KT 15/02 A3033 RMK A01 T01470019  RH  042%=      5-min Rain = 0
KMC1 102252Z 31001KT 15/02 A3033 RMK A01 T01460019  RH  042%=      5-min Rain = 0
KMC1 102253Z 25001KT 15/02 A3033 RMK A01 T01450021  RH  043%=      5-min Rain = 0
KMC1 102254Z 23001KT 15/02 A3033 RMK A01 T01450020  RH  043%=      5-min Rain = 0
KMC1 102255Z 24001KT 15/02 A3033 RMK A01 T01450018  RH  042%=      5-min Rain = 0
KMC1 102256Z 24000KT 15/02 A3033 RMK A01 T01450017  RH  042%=      5-min Rain = 0
KMC1 102257Z 00000KT 14/02 A3033 RMK A01 T01440018  RH  042%=      5-min Rain = 0
KMC1 102258Z 21001KT 15/02 A3033 RMK A01 T01450018  RH  042%=      5-min Rain = 0
KMC1 102259Z 21002KT 15/02 A3033 RMK A01 T01470019  RH  042%=      5-min Rain = 0
KMC1 102300Z 22003KT 15/02 A3033 RMK A01 T01460019  RH  042%=      5-min Rain = 0
KMC1 102301Z 24002KT 14/02 A3033 RMK A01 T01440019  RH  043%=      5-min Rain = 0
KMC1 102302Z 26001KT 14/02 A3033 RMK A01 T01430018  RH  043%=      5-min Rain = 0
KMC1 102303Z 22000KT 14/02 A3033 RMK A01 T01420016  RH  042%=      5-min Rain = 0
KMC1 102304Z 22001KT 14/02 A3033 RMK A01 T01420015  RH  042%=      5-min Rain = 0
KMC1 102305Z 24001KT 14/02 A3033 RMK A01 T01430016  RH  042%=      5-min Rain = 0
KMC1 102306Z 23001KT 14/02 A3033 RMK A01 T01430017  RH  042%=      5-min Rain = 0
KMC1 102307Z 22001KT 14/02 A3033 RMK A01 T01430017  RH  042%=      5-min Rain = 0
KMC1 102308Z 21001KT 14/02 A3033 RMK A01 T01430016  RH  042%=      5-min Rain = 0
KMC1 102309Z 22001KT 14/02 A3033 RMK A01 T01430016  RH  042%=      5-min Rain = 0
KMC1 102310Z 21002KT 14/02 A3033 RMK A01 T01430018  RH  043%=      5-min Rain = 0
KMC1 102311Z 21001KT 14/02 A3033 RMK A01 T01430020  RH  043%=      5-min Rain = 0
KMC1 102312Z 22001KT 14/02 A3033 RMK A01 T01410020  RH  044%=      5-min Rain = 0
KMC1 102313Z 23001KT 14/02 A3033 RMK A01 T01410022  RH  045%=      5-min Rain = 0
KMC1 102314Z 25001KT 14/02 A3033 RMK A01 T01400023  RH  045%=      5-min Rain = 0
KMC1 102315Z 24002KT 14/02 A3033 RMK A01 T01390023  RH  045%=      5-min Rain = 0
KMC1 102316Z 25002KT 14/02 A3033 RMK A01 T01390024  RH  046%=      5-min Rain = 0
KMC1 102317Z 25002KT 14/02 A3033 RMK A01 T01390023  RH  046%=      5-min Rain = 0
KMC1 102318Z 24000KT 14/02 A3033 RMK A01 T01380024  RH  046%=      5-min Rain = 0
KMC1 102319Z 25000KT 14/02 A3033 RMK A01 T01380024  RH  046%=      5-min Rain = 0
KMC1 102320Z 24000KT 14/02 A3033 RMK A01 T01370024  RH  046%=      5-min Rain = 0
KMC1 102321Z 24001KT 14/02 A3033 RMK A01 T01360024  RH  047%=      5-min Rain = 0
KMC1 102322Z 24000KT 13/02 A3033 RMK A01 T01340023  RH  047%=      5-min Rain = 0
KMC1 102323Z 24001KT 13/02 A3033 RMK A01 T01330024  RH  047%=      5-min Rain = 0
KMC1 102324Z 23001KT 13/03 A3033 RMK A01 T01320025  RH  048%=      5-min Rain = 0
KMC1 102325Z 23001KT 13/03 A3033 RMK A01 T01310025  RH  048%=      5-min Rain = 0
KMC1 102326Z 20001KT 13/03 A3033 RMK A01 T01300025  RH  049%=      5-min Rain = 0
KMC1 102327Z 19001KT 13/02 A3033 RMK A01 T01290024  RH  049%=      5-min Rain = 0
KMC1 102328Z 20002KT 13/02 A3033 RMK A01 T01280023  RH  049%=      5-min Rain = 0
KMC1 102329Z 20002KT 13/02 A3033 RMK A01 T01270024  RH  049%=      5-min Rain = 0
KMC1 102330Z 20002KT 13/03 A3033 RMK A01 T01270025  RH  050%=      5-min Rain = 0
KMC1 102331Z 20002KT 13/03 A3033 RMK A01 T01250025  RH  050%=      5-min Rain = 0
KMC1 102332Z 20001KT 13/02 A3033 RMK A01 T01250024  RH  050%=      5-min Rain = 0
KMC1 102333Z 20002KT 12/02 A3033 RMK A01 T01240023  RH  050%=      5-min Rain = 0
KMC1 102334Z 20001KT 12/02 A3033 RMK A01 T01230022  RH  050%=      5-min Rain = 0
KMC1 102335Z 20001KT 12/02 A3034 RMK A01 T01220021  RH  050%=      5-min Rain = 0
KMC1 102336Z 20001KT 12/02 A3034 RMK A01 T01210021  RH  050%=      5-min Rain = 0
KMC1 102337Z 20001KT 12/02 A3034 RMK A01 T01210021  RH  050%=      5-min Rain = 0
KMC1 102338Z 20001KT 12/02 A3034 RMK A01 T01200020  RH  050%=      5-min Rain = 0
KMC1 102339Z 20001KT 12/02 A3034 RMK A01 T01200020  RH  050%=      5-min Rain = 0
KMC1 102340Z 20001KT 12/02 A3034 RMK A01 T01190020  RH  051%=      5-min Rain = 0
KMC1 102341Z 20001KT 12/02 A3034 RMK A01 T01190020  RH  051%=      5-min Rain = 0
KMC1 102342Z 20001KT 12/02 A3033 RMK A01 T01180019  RH  051%=      5-min Rain = 0
KMC1 102343Z 19001KT 12/02 A3033 RMK A01 T01180019  RH  051%=      5-min Rain = 0
KMC1 102344Z 19001KT 12/02 A3033 RMK A01 T01180019  RH  051%=      5-min Rain = 0
KMC1 102345Z 19001KT 12/02 A3033 RMK A01 T01170019  RH  051%=      5-min Rain = 0
KMC1 102346Z 19001KT 12/02 A3033 RMK A01 T01170020  RH  051%=      5-min Rain = 0
KMC1 102347Z 19001KT 12/02 A3033 RMK A01 T01170019  RH  051%=      5-min Rain = 0
KMC1 102348Z 19001KT 12/02 A3033 RMK A01 T01160018  RH  051%=      5-min Rain = 0
KMC1 102349Z 19001KT 12/02 A3033 RMK A01 T01160018  RH  051%=      5-min Rain = 0
KMC1 102350Z 17001KT 12/02 A3033 RMK A01 T01160019  RH  051%=      5-min Rain = 0
KMC1 102351Z 16001KT 12/02 A3033 RMK A01 T01150019  RH  052%=      5-min Rain = 0
KMC1 102352Z 16001KT 12/02 A3033 RMK A01 T01150019  RH  052%=      5-min Rain = 0
KMC1 102353Z 16001KT 11/02 A3034 RMK A01 T01140019  RH  052%=      5-min Rain = 0
KMC1 102354Z 16001KT 11/02 A3034 RMK A01 T01130019  RH  052%=      5-min Rain = 0
KMC1 102355Z 16001KT 11/02 A3034 RMK A01 T01130020  RH  053%=      5-min Rain = 0
KMC1 102356Z 16001KT 11/02 A3034 RMK A01 T01120022  RH  054%=      5-min Rain = 0
KMC1 102357Z 16001KT 11/02 A3034 RMK A01 T01120022  RH  054%=      5-min Rain = 0
KMC1 102358Z 16001KT 11/02 A3034 RMK A01 T01110022  RH  054%=      5-min Rain = 0
KMC1 102359Z 16001KT 11/02 A3034 RMK A01 T01100022  RH  055%=      5-min Rain = 0
KMC1 110000Z 16001KT 11/02 A3034 RMK A01 T01100022  RH  055%=      5-min Rain = 0
KMC1 110001Z 16001KT 11/02 A3034 RMK A01 T01090022  RH  055%=      5-min Rain = 0
KMC1 110002Z 16001KT 11/02 A3034 RMK A01 T01090022  RH  055%=      5-min Rain = 0
KMC1 110003Z 16001KT 11/02 A3034 RMK A01 T01090022  RH  055%=      5-min Rain = 0
KMC1 110004Z 16001KT 11/02 A3034 RMK A01 T01080019  RH  054%=      5-min Rain = 0
KMC1 110005Z 16001KT 11/02 A3034 RMK A01 T01090019  RH  054%=      5-min Rain = 0
KMC1 110006Z 16001KT 11/02 A3034 RMK A01 T01090020  RH  054%=      5-min Rain = 0
KMC1 110007Z 16001KT 11/02 A3034 RMK A01 T01080020  RH  055%=      5-min Rain = 0
KMC1 110008Z 16001KT 11/02 A3034 RMK A01 T01070020  RH  055%=      5-min Rain = 0
KMC1 110009Z 16001KT 11/02 A3034 RMK A01 T01070019  RH  055%=      5-min Rain = 0
KMC1 110010Z 16001KT 11/02 A3034 RMK A01 T01070019  RH  054%=      5-min Rain = 0
KMC1 110011Z 16001KT 11/02 A3034 RMK A01 T01070018  RH  054%=      5-min Rain = 0
KMC1 110012Z 16001KT 11/02 A3034 RMK A01 T01070018  RH  054%=      5-min Rain = 0
KMC1 110013Z 16001KT 11/02 A3034 RMK A01 T01070018  RH  054%=      5-min Rain = 0
KMC1 110014Z 16001KT 11/02 A3034 RMK A01 T01070018  RH  054%=      5-min Rain = 0
KMC1 110015Z 16001KT 11/02 A3034 RMK A01 T01070017  RH  054%=      5-min Rain = 0
KMC1 110016Z 15001KT 11/02 A3034 RMK A01 T01070018  RH  054%=      5-min Rain = 0
KMC1 110017Z 15001KT 11/02 A3034 RMK A01 T01070017  RH  054%=      5-min Rain = 0
KMC1 110018Z 15001KT 11/02 A3034 RMK A01 T01070017  RH  054%=      5-min Rain = 0
KMC1 110019Z 15001KT 11/02 A3034 RMK A01 T01070018  RH  054%=      5-min Rain = 0
KMC1 110020Z 15001KT 11/02 A3034 RMK A01 T01070017  RH  054%=      5-min Rain = 0
KMC1 110021Z 14002KT 11/02 A3034 RMK A01 T01070017  RH  054%=      5-min Rain = 0
KMC1 110022Z 14002KT 11/02 A3034 RMK A01 T01070017  RH  054%=      5-min Rain = 0
KMC1 110023Z 14002KT 11/02 A3034 RMK A01 T01070017  RH  054%=      5-min Rain = 0
KMC1 110024Z 14002KT 11/02 A3034 RMK A01 T01070017  RH  054%=      5-min Rain = 0
KMC1 110025Z 14002KT 11/02 A3034 RMK A01 T01060017  RH  054%=      5-min Rain = 0
KMC1 110026Z 14002KT 11/02 A3034 RMK A01 T01050016  RH  054%=      5-min Rain = 0
KMC1 110027Z 14002KT 11/02 A3034 RMK A01 T01050016  RH  054%=      5-min Rain = 0
KMC1 110028Z 14002KT 10/02 A3034 RMK A01 T01040016  RH  054%=      5-min Rain = 0
KMC1 110029Z 14002KT 10/02 A3034 RMK A01 T01040016  RH  054%=      5-min Rain = 0
KMC1 110030Z 14002KT 11/02 A3034 RMK A01 T01050016  RH  054%=      5-min Rain = 0
KMC1 110031Z 14002KT 10/02 A3034 RMK A01 T01040015  RH  054%=      5-min Rain = 0
KMC1 110032Z 14002KT 11/02 A3034 RMK A01 T01050016  RH  054%=      5-min Rain = 0
KMC1 110033Z 14002KT 11/02 A3034 RMK A01 T01050016  RH  054%=      5-min Rain = 0
KMC1 110034Z 13002KT 10/02 A3034 RMK A01 T01040016  RH  054%=      5-min Rain = 0
KMC1 110035Z 13002KT 10/02 A3034 RMK A01 T01020016  RH  055%=      5-min Rain = 0
KMC1 110036Z 13002KT 10/02 A3034 RMK A01 T01010015  RH  055%=      5-min Rain = 0
KMC1 110037Z 13003KT 10/02 A3034 RMK A01 T00990016  RH  056%=      5-min Rain = 0
KMC1 110038Z 12003KT 10/02 A3034 RMK A01 T00980016  RH  057%=      5-min Rain = 0
KMC1 110039Z 12003KT 10/02 A3034 RMK A01 T00960017  RH  057%=      5-min Rain = 0
KMC1 110040Z 12003KT 10/02 A3034 RMK A01 T00950017  RH  058%=      5-min Rain = 0
KMC1 110041Z 12003KT 09/02 A3034 RMK A01 T00930017  RH  059%=      5-min Rain = 0
KMC1 110042Z 12003KT 09/02 A3034 RMK A01 T00930018  RH  059%=      5-min Rain = 0
KMC1 110043Z 12003KT 09/02 A3034 RMK A01 T00920017  RH  060%=      5-min Rain = 0
KMC1 110044Z 12003KT 09/02 A3034 RMK A01 T00910016  RH  060%=      5-min Rain = 0
KMC1 110045Z 12003KT 09/02 A3034 RMK A01 T00920016  RH  059%=      5-min Rain = 0
KMC1 110046Z 12003KT 09/02 A3034 RMK A01 T00920017  RH  059%=      5-min Rain = 0
KMC1 110047Z 12004KT 09/02 A3034 RMK A01 T00930017  RH  059%=      5-min Rain = 0
KMC1 110048Z 12004KT 09/02 A3034 RMK A01 T00940016  RH  058%=      5-min Rain = 0
KMC1 110049Z 12004KT 09/02 A3034 RMK A01 T00940016  RH  058%=      5-min Rain = 0
KMC1 110050Z 12004KT 09/02 A3034 RMK A01 T00940016  RH  058%=      5-min Rain = 0
KMC1 110051Z 13003KT 09/02 A3034 RMK A01 T00940015  RH  058%=      5-min Rain = 0
KMC1 110052Z 13003KT 09/02 A3034 RMK A01 T00940016  RH  058%=      5-min Rain = 0
KMC1 110053Z 13003KT 09/02 A3034 RMK A01 T00940015  RH  058%=      5-min Rain = 0
KMC1 110054Z 13003KT 09/02 A3034 RMK A01 T00930015  RH  058%=      5-min Rain = 0
KMC1 110055Z 13003KT 09/02 A3034 RMK A01 T00920017  RH  060%=      5-min Rain = 0
KMC1 110056Z 14003KT 09/02 A3034 RMK A01 T00890018  RH  061%=      5-min Rain = 0
KMC1 110057Z 13003KT 09/02 A3034 RMK A01 T00870017  RH  061%=      5-min Rain = 0
KMC1 110058Z 14003KT 09/02 A3035 RMK A01 T00850016  RH  062%=      5-min Rain = 0
KMC1 110059Z 14003KT 08/02 A3035 RMK A01 T00840016  RH  062%=      5-min Rain = 0
KMC1 110100Z 13003KT 08/02 A3035 RMK A01 T00830015  RH  062%=      5-min Rain = 0
KMC1 110101Z 13003KT 08/02 A3035 RMK A01 T00820015  RH  063%=      5-min Rain = 0
KMC1 110102Z 13003KT 08/02 A3035 RMK A01 T00810015  RH  063%=      5-min Rain = 0
KMC1 110103Z 13003KT 08/01 A3035 RMK A01 T00800014  RH  063%=      5-min Rain = 0
KMC1 110104Z 13003KT 08/02 A3035 RMK A01 T00790015  RH  064%=      5-min Rain = 0
KMC1 110105Z 13003KT 08/02 A3035 RMK A01 T00790015  RH  064%=      5-min Rain = 0
KMC1 110106Z 13003KT 08/02 A3035 RMK A01 T00780015  RH  064%=      5-min Rain = 0
KMC1 110107Z 13003KT 08/02 A3035 RMK A01 T00780016  RH  065%=      5-min Rain = 0
KMC1 110108Z 13003KT 08/02 A3035 RMK A01 T00780017  RH  065%=      5-min Rain = 0
KMC1 110109Z 14003KT 08/02 A3035 RMK A01 T00770017  RH  066%=      5-min Rain = 0
KMC1 110110Z 13003KT 08/02 A3035 RMK A01 T00750017  RH  066%=      5-min Rain = 0
KMC1 110111Z 14003KT 07/02 A3035 RMK A01 T00740017  RH  067%=      5-min Rain = 0
KMC1 110112Z 14003KT 07/02 A3035 RMK A01 T00730017  RH  068%=      5-min Rain = 0
KMC1 110113Z 15002KT 07/02 A3035 RMK A01 T00710018  RH  069%=      5-min Rain = 0
KMC1 110114Z 15002KT 07/02 A3035 RMK A01 T00690018  RH  070%=      5-min Rain = 0
KMC1 110115Z 15002KT 07/02 A3035 RMK A01 T00670020  RH  072%=      5-min Rain = 0
KMC1 110116Z 15002KT 07/02 A3035 RMK A01 T00660020  RH  072%=      5-min Rain = 0
KMC1 110117Z 15002KT 06/02 A3035 RMK A01 T00640019  RH  073%=      5-min Rain = 0
KMC1 110118Z 15002KT 06/02 A3035 RMK A01 T00630019  RH  074%=      5-min Rain = 0
KMC1 110119Z 14002KT 06/02 A3035 RMK A01 T00610019  RH  074%=      5-min Rain = 0
KMC1 110120Z 16001KT 06/02 A3035 RMK A01 T00590019  RH  075%=      5-min Rain = 0
KMC1 110121Z 15001KT 06/02 A3035 RMK A01 T00580020  RH  076%=      5-min Rain = 0
KMC1 110122Z 16002KT 06/02 A3035 RMK A01 T00570020  RH  077%=      5-min Rain = 0
KMC1 110123Z 16002KT 06/02 A3035 RMK A01 T00560020  RH  077%=      5-min Rain = 0
KMC1 110124Z 16002KT 06/02 A3035 RMK A01 T00560020  RH  078%=      5-min Rain = 0
KMC1 110125Z 15002KT 06/02 A3035 RMK A01 T00550019  RH  078%=      5-min Rain = 0
KMC1 110126Z 15002KT 06/02 A3035 RMK A01 T00550019  RH  078%=      5-min Rain = 0
KMC1 110127Z 15003KT 05/02 A3035 RMK A01 T00540019  RH  078%=      5-min Rain = 0
KMC1 110128Z 16002KT 05/02 A3035 RMK A01 T00540019  RH  078%=      5-min Rain = 0
KMC1 110129Z 16002KT 05/02 A3035 RMK A01 T00540019  RH  078%=      5-min Rain = 0
KMC1 110130Z 16002KT 05/02 A3035 RMK A01 T00540020  RH  079%=      5-min Rain = 0
KMC1 110131Z 16002KT 05/02 A3035 RMK A01 T00540020  RH  079%=      5-min Rain = 0
KMC1 110132Z 16002KT 05/02 A3035 RMK A01 T00540020  RH  079%=      5-min Rain = 0
KMC1 110133Z 16003KT 05/02 A3035 RMK A01 T00530020  RH  079%=      5-min Rain = 0
KMC1 110134Z 16003KT 05/02 A3035 RMK A01 T00520019  RH  079%=      5-min Rain = 0
KMC1 110135Z 16003KT 05/02 A3035 RMK A01 T00520019  RH  079%=      5-min Rain = 0
KMC1 110136Z 16003KT 05/02 A3035 RMK A01 T00520018  RH  079%=      5-min Rain = 0
KMC1 110137Z 16003KT 05/02 A3035 RMK A01 T00520018  RH  079%=      5-min Rain = 0
KMC1 110138Z 15003KT 05/02 A3035 RMK A01 T00520018  RH  079%=      5-min Rain = 0
KMC1 110139Z 16003KT 05/02 A3035 RMK A01 T00520018  RH  079%=      5-min Rain = 0
KMC1 110140Z 15003KT 05/02 A3035 RMK A01 T00520018  RH  079%=      5-min Rain = 0
KMC1 110141Z 16003KT 05/02 A3035 RMK A01 T00520018  RH  079%=      5-min Rain = 0
KMC1 110142Z 15003KT 05/02 A3035 RMK A01 T00520017  RH  078%=      5-min Rain = 0
KMC1 110143Z 15003KT 05/02 A3035 RMK A01 T00530017  RH  078%=      5-min Rain = 0
KMC1 110144Z 15003KT 05/02 A3035 RMK A01 T00530017  RH  077%=      5-min Rain = 0
KMC1 110145Z 15002KT 05/02 A3035 RMK A01 T00540017  RH  077%=      5-min Rain = 0
KMC1 110146Z 16002KT 05/02 A3035 RMK A01 T00540017  RH  077%=      5-min Rain = 0
KMC1 110147Z 17002KT 05/02 A3035 RMK A01 T00540018  RH  078%=      5-min Rain = 0
KMC1 110148Z 17003KT 05/02 A3035 RMK A01 T00530018  RH  078%=      5-min Rain = 0
KMC1 110149Z 17003KT 05/02 A3035 RMK A01 T00510018  RH  079%=      5-min Rain = 0
KMC1 110150Z 16003KT 05/02 A3035 RMK A01 T00510017  RH  079%=      5-min Rain = 0
KMC1 110151Z 15003KT 05/02 A3035 RMK A01 T00510017  RH  079%=      5-min Rain = 0
KMC1 110152Z 15003KT 05/02 A3035 RMK A01 T00500016  RH  079%=      5-min Rain = 0
KMC1 110153Z 15002KT 05/02 A3035 RMK A01 T00500016  RH  079%=      5-min Rain = 0
KMC1 110154Z 15001KT 05/02 A3035 RMK A01 T00500017  RH  079%=      5-min Rain = 0
KMC1 110155Z 17001KT 05/02 A3035 RMK A01 T00500017  RH  079%=      5-min Rain = 0
KMC1 110156Z 17001KT 05/02 A3035 RMK A01 T00500018  RH  080%=      5-min Rain = 0
KMC1 110157Z 17002KT 05/02 A3035 RMK A01 T00500018  RH  080%=      5-min Rain = 0
KMC1 110158Z 17002KT 05/02 A3035 RMK A01 T00490018  RH  080%=      5-min Rain = 0
KMC1 110159Z 17002KT 05/02 A3035 RMK A01 T00490017  RH  080%=      5-min Rain = 0
KMC1 110200Z 17002KT 05/02 A3035 RMK A01 T00490017  RH  080%=      5-min Rain = 0
KMC1 110201Z 18002KT 05/02 A3035 RMK A01 T00490016  RH  080%=      5-min Rain = 0
KMC1 110202Z 18001KT 05/02 A3035 RMK A01 T00490016  RH  079%=      5-min Rain = 0
KMC1 110203Z 18001KT 05/02 A3036 RMK A01 T00490016  RH  079%=      5-min Rain = 0
KMC1 110204Z 19002KT 05/02 A3036 RMK A01 T00490016  RH  079%=      5-min Rain = 0
KMC1 110205Z 18002KT 05/02 A3036 RMK A01 T00490016  RH  079%=      5-min Rain = 0
KMC1 110206Z 18002KT 05/02 A3036 RMK A01 T00490016  RH  079%=      5-min Rain = 0
KMC1 110207Z 17002KT 05/02 A3036 RMK A01 T00500016  RH  079%=      5-min Rain = 0
KMC1 110208Z 17002KT 05/02 A3036 RMK A01 T00500016  RH  079%=      5-min Rain = 0
KMC1 110209Z 17002KT 05/02 A3036 RMK A01 T00500016  RH  079%=      5-min Rain = 0
KMC1 110210Z 17002KT 05/02 A3035 RMK A01 T00500016  RH  079%=      5-min Rain = 0
KMC1 110211Z 17002KT 05/02 A3035 RMK A01 T00500016  RH  079%=      5-min Rain = 0
KMC1 110212Z 17002KT 05/02 A3035 RMK A01 T00500016  RH  079%=      5-min Rain = 0
KMC1 110213Z 17002KT 05/02 A3036 RMK A01 T00490016  RH  079%=      5-min Rain = 0
KMC1 110214Z 18002KT 05/02 A3036 RMK A01 T00490016  RH  080%=      5-min Rain = 0
KMC1 110215Z 18002KT 05/02 A3036 RMK A01 T00480017  RH  080%=      5-min Rain = 0
KMC1 110216Z 18002KT 05/02 A3036 RMK A01 T00480017  RH  081%=      5-min Rain = 0
KMC1 110217Z 18002KT 05/02 A3036 RMK A01 T00470017  RH  081%=      5-min Rain = 0
KMC1 110218Z 18002KT 05/02 A3036 RMK A01 T00460017  RH  081%=      5-min Rain = 0
KMC1 110219Z 18002KT 05/02 A3036 RMK A01 T00460017  RH  082%=      5-min Rain = 0
KMC1 110220Z 18002KT 05/02 A3036 RMK A01 T00450016  RH  081%=      5-min Rain = 0
KMC1 110221Z 19002KT 05/02 A3036 RMK A01 T00450016  RH  081%=      5-min Rain = 0
KMC1 110222Z 20002KT 05/02 A3036 RMK A01 T00450015  RH  081%=      5-min Rain = 0
KMC1 110223Z 21002KT 04/02 A3036 RMK A01 T00440016  RH  082%=      5-min Rain = 0
KMC1 110224Z 22003KT 04/02 A3036 RMK A01 T00430017  RH  083%=      5-min Rain = 0
KMC1 110225Z 21003KT 04/02 A3036 RMK A01 T00410016  RH  084%=      5-min Rain = 0
KMC1 110226Z 19002KT 04/02 A3036 RMK A01 T00400015  RH  084%=      5-min Rain = 0
KMC1 110227Z 20002KT 04/02 A3036 RMK A01 T00380015  RH  085%=      5-min Rain = 0
KMC1 110228Z 18002KT 04/02 A3036 RMK A01 T00370015  RH  085%=      5-min Rain = 0
KMC1 110229Z 18002KT 04/02 A3036 RMK A01 T00370015  RH  086%=      5-min Rain = 0
KMC1 110230Z 17003KT 04/02 A3036 RMK A01 T00370016  RH  086%=      5-min Rain = 0
KMC1 110231Z 17003KT 04/02 A3036 RMK A01 T00380016  RH  085%=      5-min Rain = 0
KMC1 110232Z 16003KT 04/02 A3036 RMK A01 T00380015  RH  085%=      5-min Rain = 0
KMC1 110233Z 17003KT 04/02 A3036 RMK A01 T00390015  RH  085%=      5-min Rain = 0
KMC1 110234Z 17003KT 04/02 A3036 RMK A01 T00390015  RH  085%=      5-min Rain = 0
KMC1 110235Z 16002KT 04/02 A3036 RMK A01 T00390015  RH  084%=      5-min Rain = 0
KMC1 110236Z 17002KT 04/01 A3036 RMK A01 T00390014  RH  084%=      5-min Rain = 0
KMC1 110237Z 17002KT 04/02 A3036 RMK A01 T00390015  RH  084%=      5-min Rain = 0
KMC1 110238Z 17002KT 04/02 A3036 RMK A01 T00390015  RH  084%=      5-min Rain = 0
KMC1 110239Z 17003KT 04/01 A3036 RMK A01 T00380014  RH  084%=      5-min Rain = 0
KMC1 110240Z 18003KT 04/01 A3036 RMK A01 T00380014  RH  085%=      5-min Rain = 0
KMC1 110241Z 18003KT 04/01 A3036 RMK A01 T00370013  RH  085%=      5-min Rain = 0
KMC1 110242Z 18003KT 04/01 A3036 RMK A01 T00360013  RH  085%=      5-min Rain = 0
KMC1 110243Z 17002KT 04/01 A3036 RMK A01 T00360013  RH  085%=      5-min Rain = 0
KMC1 110244Z 17001KT 04/01 A3036 RMK A01 T00360014  RH  086%=      5-min Rain = 0
KMC1 110245Z 17000KT 04/02 A3036 RMK A01 T00350015  RH  087%=      5-min Rain = 0
KMC1 110246Z 00000KT 04/02 A3036 RMK A01 T00360016  RH  087%=      5-min Rain = 0
KMC1 110247Z 00000KT 04/02 A3036 RMK A01 T00370016  RH  086%=      5-min Rain = 0
KMC1 110248Z 00000KT 04/02 A3036 RMK A01 T00370015  RH  085%=      5-min Rain = 0
KMC1 110249Z 00000KT 04/01 A3036 RMK A01 T00370014  RH  085%=      5-min Rain = 0
KMC1 110250Z 00000KT 04/01 A3036 RMK A01 T00360013  RH  085%=      5-min Rain = 0
KMC1 110251Z 00000KT 04/01 A3036 RMK A01 T00360013  RH  085%=      5-min Rain = 0
KMC1 110252Z 00000KT 04/01 A3036 RMK A01 T00350013  RH  085%=      5-min Rain = 0
KMC1 110253Z 14000KT 04/01 A3036 RMK A01 T00350014  RH  086%=      5-min Rain = 0
KMC1 110254Z 12001KT 03/01 A3036 RMK A01 T00340014  RH  086%=      5-min Rain = 0
KMC1 110255Z 08002KT 03/01 A3036 RMK A01 T00340014  RH  087%=      5-min Rain = 0
KMC1 110256Z 07001KT 03/01 A3036 RMK A01 T00340014  RH  087%=      5-min Rain = 0
KMC1 110257Z 07001KT 03/01 A3036 RMK A01 T00340014  RH  087%=      5-min Rain = 0
KMC1 110258Z 07001KT 03/02 A3036 RMK A01 T00340015  RH  087%=      5-min Rain = 0
KMC1 110259Z 06002KT 03/02 A3036 RMK A01 T00340015  RH  088%=      5-min Rain = 0
KMC1 110300Z 05001KT 03/02 A3036 RMK A01 T00330015  RH  088%=      5-min Rain = 0
KMC1 110301Z 05002KT 03/01 A3036 RMK A01 T00330013  RH  087%=      5-min Rain = 0
KMC1 110302Z 05002KT 03/01 A3036 RMK A01 T00320013  RH  087%=      5-min Rain = 0
KMC1 110303Z 04001KT 03/01 A3036 RMK A01 T00320013  RH  088%=      5-min Rain = 0
KMC1 110304Z 01002KT 03/01 A3036 RMK A01 T00300011  RH  087%=      5-min Rain = 0
KMC1 110305Z 34001KT 03/01 A3036 RMK A01 T00300011  RH  088%=      5-min Rain = 0
KMC1 110306Z 35001KT 03/01 A3036 RMK A01 T00290014  RH  090%=      5-min Rain = 0
KMC1 110307Z 00001KT 03/02 A3037 RMK A01 T00300016  RH  091%=      5-min Rain = 0
KMC1 110308Z 00001KT 03/02 A3037 RMK A01 T00290016  RH  091%=      5-min Rain = 0
KMC1 110309Z 00000KT 03/02 A3037 RMK A01 T00290016  RH  091%=      5-min Rain = 0
KMC1 110310Z 00000KT 03/01 A3037 RMK A01 T00280014  RH  091%=      5-min Rain = 0
KMC1 110311Z 00000KT 03/01 A3036 RMK A01 T00270013  RH  090%=      5-min Rain = 0
KMC1 110312Z 35001KT 03/01 A3036 RMK A01 T00260011  RH  090%=      5-min Rain = 0
KMC1 110313Z 34002KT 03/01 A3036 RMK A01 T00250009  RH  089%=      5-min Rain = 0
KMC1 110314Z 33001KT 02/01 A3036 RMK A01 T00240009  RH  090%=      5-min Rain = 0
KMC1 110315Z 33001KT 02/01 A3036 RMK A01 T00240011  RH  091%=      5-min Rain = 0
KMC1 110316Z 32001KT 02/01 A3036 RMK A01 T00230011  RH  092%=      5-min Rain = 0
KMC1 110317Z 32001KT 02/01 A3037 RMK A01 T00230011  RH  092%=      5-min Rain = 0
KMC1 110318Z 32001KT 02/01 A3037 RMK A01 T00230012  RH  092%=      5-min Rain = 0
KMC1 110319Z 32001KT 02/01 A3037 RMK A01 T00230012  RH  093%=      5-min Rain = 0
KMC1 110320Z 35002KT 02/01 A3037 RMK A01 T00230013  RH  093%=      5-min Rain = 0
KMC1 110321Z 35001KT 02/01 A3037 RMK A01 T00230014  RH  094%=      5-min Rain = 0
KMC1 110322Z 34002KT 02/02 A3037 RMK A01 T00240015  RH  094%=      5-min Rain = 0
KMC1 110323Z 34002KT 02/01 A3037 RMK A01 T00230014  RH  094%=      5-min Rain = 0
KMC1 110324Z 34001KT 02/01 A3037 RMK A01 T00230014  RH  093%=      5-min Rain = 0
KMC1 110325Z 34001KT 02/01 A3037 RMK A01 T00230014  RH  094%=      5-min Rain = 0
KMC1 110326Z 34001KT 02/01 A3037 RMK A01 T00230014  RH  094%=      5-min Rain = 0
KMC1 110327Z 36001KT 02/01 A3037 RMK A01 T00230014  RH  094%=      5-min Rain = 0
KMC1 110328Z 00000KT 02/01 A3037 RMK A01 T00230014  RH  094%=      5-min Rain = 0
KMC1 110329Z 00000KT 02/02 A3037 RMK A01 T00230015  RH  094%=      5-min Rain = 0
KMC1 110330Z 36001KT 02/02 A3037 RMK A01 T00230015  RH  094%=      5-min Rain = 0
KMC1 110331Z 33001KT 02/02 A3037 RMK A01 T00230015  RH  094%=      5-min Rain = 0
KMC1 110332Z 33001KT 02/01 A3037 RMK A01 T00230014  RH  094%=      5-min Rain = 0
KMC1 110333Z 33000KT 02/01 A3037 RMK A01 T00230014  RH  094%=      5-min Rain = 0
KMC1 110334Z 33000KT 02/01 A3037 RMK A01 T00220014  RH  094%=      5-min Rain = 0
KMC1 110335Z 00000KT 02/01 A3037 RMK A01 T00230014  RH  094%=      5-min Rain = 0
KMC1 110336Z 33000KT 02/01 A3037 RMK A01 T00230014  RH  094%=      5-min Rain = 0
KMC1 110337Z 00000KT 02/01 A3037 RMK A01 T00230014  RH  094%=      5-min Rain = 0
KMC1 110338Z 00000KT 02/01 A3037 RMK A01 T00220014  RH  094%=      5-min Rain = 0
KMC1 110339Z 00000KT 02/02 A3037 RMK A01 T00230015  RH  094%=      5-min Rain = 0
KMC1 110340Z 00000KT 02/02 A3037 RMK A01 T00230015  RH  094%=      5-min Rain = 0
KMC1 110341Z 00000KT 03/02 A3037 RMK A01 T00250017  RH  095%=      5-min Rain = 0
KMC1 110342Z 00000KT 03/02 A3037 RMK A01 T00250017  RH  094%=      5-min Rain = 0
KMC1 110343Z 30000KT 03/02 A3037 RMK A01 T00260017  RH  094%=      5-min Rain = 0
KMC1 110344Z 00000KT 03/02 A3037 RMK A01 T00260016  RH  093%=      5-min Rain = 0
KMC1 110345Z 00000KT 03/02 A3037 RMK A01 T00260016  RH  093%=      5-min Rain = 0
KMC1 110346Z 00000KT 03/02 A3037 RMK A01 T00260016  RH  093%=      5-min Rain = 0
KMC1 110347Z 00000KT 03/02 A3037 RMK A01 T00260016  RH  093%=      5-min Rain = 0
KMC1 110348Z 00000KT 03/02 A3037 RMK A01 T00270016  RH  093%=      5-min Rain = 0
KMC1 110349Z 21000KT 03/02 A3037 RMK A01 T00270017  RH  093%=      5-min Rain = 0
KMC1 110350Z 21000KT 03/02 A3037 RMK A01 T00270016  RH  092%=      5-min Rain = 0
KMC1 110351Z 18001KT 03/02 A3037 RMK A01 T00270015  RH  092%=      5-min Rain = 0
KMC1 110352Z 17001KT 03/02 A3037 RMK A01 T00270015  RH  092%=      5-min Rain = 0
KMC1 110353Z 17001KT 03/02 A3037 RMK A01 T00270015  RH  092%=      5-min Rain = 0
KMC1 110354Z 17000KT 03/02 A3037 RMK A01 T00270015  RH  092%=      5-min Rain = 0
KMC1 110355Z 19001KT 03/01 A3037 RMK A01 T00270014  RH  091%=      5-min Rain = 0
KMC1 110356Z 21001KT 03/01 A3037 RMK A01 T00270014  RH  091%=      5-min Rain = 0
KMC1 110357Z 19002KT 03/01 A3037 RMK A01 T00260013  RH  091%=      5-min Rain = 0
KMC1 110358Z 20002KT 03/01 A3037 RMK A01 T00260013  RH  091%=      5-min Rain = 0
KMC1 110359Z 20002KT 03/01 A3037 RMK A01 T00250013  RH  091%=      5-min Rain = 0
KMC1 110400Z 21002KT 02/01 A3037 RMK A01 T00240012  RH  091%=      5-min Rain = 0
KMC1 110401Z 21002KT 02/01 A3037 RMK A01 T00230010  RH  091%=      5-min Rain = 0
KMC1 110402Z 21002KT 02/01 A3037 RMK A01 T00210007  RH  090%=      5-min Rain = 0
KMC1 110403Z 20002KT 02/01 A3037 RMK A01 T00200007  RH  091%=      5-min Rain = 0
KMC1 110404Z 22001KT 02/01 A3037 RMK A01 T00190007  RH  092%=      5-min Rain = 0
KMC1 110405Z 21001KT 02/01 A3037 RMK A01 T00200008  RH  092%=      5-min Rain = 0
KMC1 110406Z 21001KT 02/01 A3037 RMK A01 T00190009  RH  093%=      5-min Rain = 0
KMC1 110407Z 21001KT 02/01 A3037 RMK A01 T00190009  RH  093%=      5-min Rain = 0
KMC1 110408Z 21001KT 02/01 A3037 RMK A01 T00190009  RH  093%=      5-min Rain = 0
KMC1 110409Z 21001KT 02/01 A3037 RMK A01 T00190009  RH  093%=      5-min Rain = 0
KMC1 110410Z 21001KT 02/01 A3037 RMK A01 T00180008  RH  093%=      5-min Rain = 0
KMC1 110411Z 21001KT 02/01 A3037 RMK A01 T00180008  RH  093%=      5-min Rain = 0
KMC1 110412Z 21000KT 02/01 A3037 RMK A01 T00180008  RH  093%=      5-min Rain = 0
KMC1 110413Z 00000KT 02/01 A3037 RMK A01 T00180008  RH  093%=      5-min Rain = 0
KMC1 110414Z 00000KT 02/01 A3037 RMK A01 T00180008  RH  093%=      5-min Rain = 0
KMC1 110415Z 00000KT 02/01 A3037 RMK A01 T00180008  RH  093%=      5-min Rain = 0
KMC1 110416Z 22000KT 02/01 A3037 RMK A01 T00180007  RH  093%=      5-min Rain = 0
KMC1 110417Z 23001KT 02/01 A3037 RMK A01 T00180007  RH  092%=      5-min Rain = 0
KMC1 110418Z 21001KT 02/01 A3037 RMK A01 T00170006  RH  092%=      5-min Rain = 0
KMC1 110419Z 21001KT 02/01 A3037 RMK A01 T00170006  RH  092%=      5-min Rain = 0
KMC1 110420Z 21002KT 02/01 A3037 RMK A01 T00160005  RH  092%=      5-min Rain = 0
KMC1 110421Z 21002KT 02/01 A3037 RMK A01 T00160005  RH  093%=      5-min Rain = 0
KMC1 110422Z 20001KT 02/01 A3037 RMK A01 T00150005  RH  093%=      5-min Rain = 0
KMC1 110423Z 20002KT 01/00 A3037 RMK A01 T00140004  RH  093%=      5-min Rain = 0
KMC1 110424Z 18002KT 01/00 A3037 RMK A01 T00140004  RH  093%=      5-min Rain = 0
KMC1 110425Z 18002KT 01/00 A3037 RMK A01 T00140004  RH  093%=      5-min Rain = 0
KMC1 110426Z 18002KT 01/00 A3037 RMK A01 T00130004  RH  094%=      5-min Rain = 0
KMC1 110427Z 18002KT 01/00 A3037 RMK A01 T00130004  RH  094%=      5-min Rain = 0
KMC1 110428Z 18002KT 01/00 A3037 RMK A01 T00120003  RH  094%=      5-min Rain = 0
KMC1 110429Z 17001KT 01/00 A3037 RMK A01 T00120003  RH  094%=      5-min Rain = 0
KMC1 110430Z 17001KT 01/00 A3037 RMK A01 T00110003  RH  094%=      5-min Rain = 0
KMC1 110431Z 17001KT 01/00 A3037 RMK A01 T00110002  RH  094%=      5-min Rain = 0
KMC1 110432Z 17001KT 01/00 A3037 RMK A01 T00100002  RH  094%=      5-min Rain = 0
KMC1 110433Z 17001KT 01/00 A3037 RMK A01 T00100002  RH  094%=      5-min Rain = 0
KMC1 110434Z 18002KT 01/00 A3037 RMK A01 T00100002  RH  094%=      5-min Rain = 0
KMC1 110435Z 19002KT 01/00 A3037 RMK A01 T00100002  RH  094%=      5-min Rain = 0
KMC1 110436Z 19002KT 01/00 A3037 RMK A01 T00100002  RH  095%=      5-min Rain = 0
KMC1 110437Z 18003KT 01/00 A3037 RMK A01 T00090002  RH  095%=      5-min Rain = 0
KMC1 110438Z 19003KT 01/00 A3037 RMK A01 T00090001  RH  095%=      5-min Rain = 0
KMC1 110439Z 19002KT 01/00 A3037 RMK A01 T00080001  RH  095%=      5-min Rain = 0
KMC1 110440Z 19003KT 01/00 A3037 RMK A01 T00080001  RH  095%=      5-min Rain = 0
KMC1 110441Z 19002KT 01/00 A3037 RMK A01 T00080001  RH  095%=      5-min Rain = 0
KMC1 110442Z 19002KT 01/00 A3037 RMK A01 T00080001  RH  095%=      5-min Rain = 0
KMC1 110443Z 19003KT 01/00 A3037 RMK A01 T00080001  RH  095%=      5-min Rain = 0
KMC1 110444Z 19003KT 01/00 A3037 RMK A01 T00070000  RH  095%=      5-min Rain = 0
KMC1 110445Z 19002KT 01/00 A3037 RMK A01 T00070000  RH  096%=      5-min Rain = 0
KMC1 110446Z 19002KT 01/00 A3037 RMK A01 T000600-0  RH  096%=      5-min Rain = 0
KMC1 110447Z 19002KT 01/M00 A3037 RMK A01 T00061001  RH  096%=      5-min Rain = 0
KMC1 110448Z 20002KT 01/M00 A3037 RMK A01 T00051001  RH  096%=      5-min Rain = 0
KMC1 110449Z 20002KT 01/M00 A3037 RMK A01 T00051001  RH  096%=      5-min Rain = 0
KMC1 110450Z 21002KT 01/M00 A3037 RMK A01 T00051001  RH  096%=      5-min Rain = 0
KMC1 110451Z 20002KT 01/M00 A3037 RMK A01 T00051001  RH  096%=      5-min Rain = 0
KMC1 110452Z 20002KT 01/00 A3037 RMK A01 T000500-0  RH  096%=      5-min Rain = 0
KMC1 110453Z 20002KT 01/00 A3037 RMK A01 T000500-0  RH  096%=      5-min Rain = 0
KMC1 110454Z 20003KT 01/M00 A3037 RMK A01 T00051001  RH  096%=      5-min Rain = 0
KMC1 110455Z 20003KT 01/00 A3037 RMK A01 T000500-0  RH  096%=      5-min Rain = 0
KMC1 110456Z 20003KT 01/M00 A3037 RMK A01 T00051001  RH  096%=      5-min Rain = 0
KMC1 110457Z 20002KT 01/00 A3037 RMK A01 T000500-0  RH  096%=      5-min Rain = 0
KMC1 110458Z 21002KT 01/M00 A3037 RMK A01 T00051001  RH  096%=      5-min Rain = 0
KMC1 110459Z 21003KT 01/M00 A3037 RMK A01 T00051001  RH  096%=      5-min Rain = 0
KMC1 110500Z 21003KT 00/M00 A3037 RMK A01 T00041002  RH  096%=      5-min Rain = 0
KMC1 110501Z 21003KT 00/M00 A3037 RMK A01 T00041002  RH  096%=      5-min Rain = 0
KMC1 110502Z 21003KT 00/M00 A3037 RMK A01 T00031003  RH  096%=      5-min Rain = 0
KMC1 110503Z 20003KT 00/M00 A3037 RMK A01 T00031002  RH  096%=      5-min Rain = 0
KMC1 110504Z 20004KT 00/M00 A3037 RMK A01 T00031002  RH  096%=      5-min Rain = 0
KMC1 110505Z 20004KT 00/M00 A3037 RMK A01 T00031002  RH  096%=      5-min Rain = 0
KMC1 110506Z 20004KT 00/M00 A3037 RMK A01 T00031002  RH  096%=      5-min Rain = 0
KMC1 110507Z 20004KT 00/M00 A3037 RMK A01 T00031002  RH  096%=      5-min Rain = 0
KMC1 110508Z 20004KT 00/M00 A3037 RMK A01 T00041002  RH  096%=      5-min Rain = 0
KMC1 110509Z 19004KT 00/M00 A3037 RMK A01 T00031002  RH  096%=      5-min Rain = 0
KMC1 110510Z 19004KT 00/M00 A3037 RMK A01 T00031002  RH  096%=      5-min Rain = 0
KMC1 110511Z 19004KT 00/M00 A3037 RMK A01 T00031002  RH  096%=      5-min Rain = 0
KMC1 110512Z 19004KT 00/M00 A3037 RMK A01 T00041002  RH  096%=      5-min Rain = 0
KMC1 110513Z 19004KT 00/M00 A3037 RMK A01 T00031002  RH  096%=      5-min Rain = 0
KMC1 110514Z 19004KT 00/M00 A3037 RMK A01 T00031002  RH  096%=      5-min Rain = 0
KMC1 110515Z 20004KT 00/M00 A3037 RMK A01 T00031002  RH  096%=      5-min Rain = 0
KMC1 110516Z 20004KT 00/M00 A3037 RMK A01 T00031002  RH  096%=      5-min Rain = 0
KMC1 110517Z 20004KT 00/M00 A3037 RMK A01 T00031002  RH  096%=      5-min Rain = 0
KMC1 110518Z 20004KT 00/M00 A3037 RMK A01 T00031002  RH  096%=      5-min Rain = 0
KMC1 110519Z 21004KT 00/M00 A3037 RMK A01 T00041002  RH  096%=      5-min Rain = 0
KMC1 110520Z 21004KT 00/M00 A3037 RMK A01 T00041002  RH  096%=      5-min Rain = 0
KMC1 110521Z 21004KT 00/M00 A3037 RMK A01 T00041002  RH  096%=      5-min Rain = 0
KMC1 110522Z 21004KT 00/M00 A3037 RMK A01 T00041002  RH  096%=      5-min Rain = 0
KMC1 110523Z 21004KT 00/M00 A3037 RMK A01 T00041002  RH  096%=      5-min Rain = 0
KMC1 110524Z 21004KT 00/M00 A3037 RMK A01 T00041002  RH  096%=      5-min Rain = 0
KMC1 110525Z 21004KT 00/M00 A3037 RMK A01 T00041002  RH  096%=      5-min Rain = 0
KMC1 110526Z 21004KT 00/M00 A3037 RMK A01 T00041002  RH  096%=      5-min Rain = 0
KMC1 110527Z 20004KT 00/M00 A3037 RMK A01 T00041002  RH  096%=      5-min Rain = 0
KMC1 110528Z 19004KT 00/M00 A3036 RMK A01 T00041002  RH  096%=      5-min Rain = 0
KMC1 110529Z 19004KT 00/M00 A3036 RMK A01 T00041003  RH  096%=      5-min Rain = 0
KMC1 110530Z 19004KT 00/M00 A3036 RMK A01 T00031003  RH  096%=      5-min Rain = 0
KMC1 110531Z 19004KT 00/M00 A3036 RMK A01 T00031002  RH  096%=      5-min Rain = 0
KMC1 110532Z 19004KT 00/M00 A3036 RMK A01 T00031002  RH  096%=      5-min Rain = 0
KMC1 110533Z 18004KT 00/M00 A3036 RMK A01 T00041001  RH  096%=      5-min Rain = 0
KMC1 110534Z 19004KT 00/M00 A3036 RMK A01 T00041002  RH  096%=      5-min Rain = 0
KMC1 110535Z 18005KT 00/M00 A3036 RMK A01 T00041002  RH  096%=      5-min Rain = 0
KMC1 110536Z 17006KT 01/M00 A3036 RMK A01 T00051001  RH  096%=      5-min Rain = 0
KMC1 110537Z 18005KT 01/M00 A3036 RMK A01 T00051001  RH  096%=      5-min Rain = 0
KMC1 110538Z 17005KT 01/M00 A3036 RMK A01 T00051001  RH  095%=      5-min Rain = 0
KMC1 110539Z 17005KT 01/M00 A3036 RMK A01 T00051002  RH  095%=      5-min Rain = 0
KMC1 110540Z 18005KT 01/M00 A3036 RMK A01 T00051002  RH  095%=      5-min Rain = 0
KMC1 110541Z 17004KT 01/M00 A3036 RMK A01 T00051003  RH  095%=      5-min Rain = 0
KMC1 110542Z 18004KT 00/M00 A3036 RMK A01 T00041003  RH  095%=      5-min Rain = 0
KMC1 110543Z 19003KT 00/M00 A3036 RMK A01 T00041003  RH  095%=      5-min Rain = 0
KMC1 110544Z 19003KT 00/M00 A3036 RMK A01 T00041003  RH  095%=      5-min Rain = 0
KMC1 110545Z 20003KT 00/M00 A3036 RMK A01 T00041003  RH  095%=      5-min Rain = 0
KMC1 110546Z 21002KT 00/M00 A3036 RMK A01 T00031004  RH  095%=      5-min Rain = 0
KMC1 110547Z 22003KT 00/M00 A3036 RMK A01 T00031004  RH  095%=      5-min Rain = 0
KMC1 110548Z 23003KT 00/M01 A3036 RMK A01 T00021005  RH  095%=      5-min Rain = 0
KMC1 110549Z 23002KT 00/M01 A3036 RMK A01 T00011005  RH  095%=      5-min Rain = 0
KMC1 110550Z 23002KT 00/M01 A3036 RMK A01 T00011006  RH  095%=      5-min Rain = 0
KMC1 110551Z 23001KT 00/01 A3036 RMK A01 T00-000-7  RH  095%=      5-min Rain = 0
KMC1 110552Z 23002KT 00/01 A3036 RMK A01 T00-000-7  RH  095%=      5-min Rain = 0
KMC1 110553Z 22002KT M00/M01 A3036 RMK A01 T10011007  RH  096%=      5-min Rain = 0
KMC1 110554Z 22003KT M00/M01 A3036 RMK A01 T10011007  RH  096%=      5-min Rain = 0
KMC1 110555Z 22003KT 00/01 A3036 RMK A01 T00-000-5  RH  096%=      5-min Rain = 0
KMC1 110556Z 22003KT 00/01 A3036 RMK A01 T000000-5  RH  096%=      5-min Rain = 0
KMC1 110557Z 22003KT 00/01 A3036 RMK A01 T000000-5  RH  096%=      5-min Rain = 0
KMC1 110558Z 22003KT 00/01 A3036 RMK A01 T000000-5  RH  096%=      5-min Rain = 0
KMC1 110559Z 22003KT 00/M00 A3036 RMK A01 T00011004  RH  097%=      5-min Rain = 0

Page generated in 0.0385 seconds.